[{"header": {"parameterCategory": 1, "parameterNumber": 2, "dx": 0.06612293990616946, "dy": 0.0552356325346848, "nx": 98, "ny": 59, "la1": 35.046912555036876, "la2": 31.78801023549047, "lo1": -121.43107172385933, "lo2": -114.95102361305473, "refTime": "2026041222"}, "data": [12.96, 12.96, 12.52, 12.52, 12.52, 12.52, 12.52, 12.52, 12.96, 12.96, 12.96, 12.96, 12.96, 12.96, 12.96, 12.96, 12.96, 12.96, 12.96, 13.41, 13.41, 13.41, 13.41, 13.41, 13.41, 12.96, 12.96, 12.96, 12.96, 12.96, 12.52, 12.52, 12.07, 12.07, 11.62, 10.73, 9.83, 8.49, 6.71, 5.81, 6.71, 8.05, 8.49, 9.39, 9.83, 10.73, 11.62, 12.52, 13.41, 14.3, 14.75, 15.2, 15.2, 14.75, 14.75, 14.75, 14.75, 14.3, 14.3, 14.3, 13.86, 13.86, 13.41, 13.41, 13.41, 13.41, 13.86, 14.75, 14.75, 15.2, 15.2, 14.75, 14.3, 13.86, 12.96, 12.07, 11.62, 10.28, 8.94, 7.6, 6.71, 6.71, 7.6, 8.49, 7.6, 6.26, 5.36, 4.47, 4.47, 4.92, 5.36, 5.81, 6.26, 6.71, 7.6, 7.6, 7.6, 6.26, 12.96, 12.96, 12.96, 12.96, 12.96, 12.96, 12.96, 12.96, 12.96, 12.96, 12.96, 12.96, 12.96, 12.96, 12.96, 12.96, 12.96, 12.96, 12.96, 12.96, 12.96, 13.41, 13.41, 13.41, 13.41, 12.96, 12.96, 12.96, 12.96, 12.96, 12.96, 12.96, 12.52, 12.07, 11.62, 10.73, 9.39, 7.6, 6.26, 6.26, 6.71, 7.6, 8.49, 9.83, 10.73, 12.52, 13.41, 14.3, 14.75, 14.75, 15.2, 15.2, 14.75, 14.3, 14.3, 14.3, 14.3, 14.3, 14.3, 14.3, 13.86, 13.86, 13.41, 12.96, 12.96, 13.41, 14.3, 14.75, 15.2, 15.2, 15.2, 14.75, 13.86, 12.96, 12.52, 11.62, 11.18, 10.28, 8.94, 7.6, 6.71, 6.71, 7.6, 8.49, 7.6, 6.26, 5.36, 4.47, 4.47, 4.92, 5.36, 5.81, 6.26, 6.71, 7.6, 7.6, 7.6, 6.26, 12.96, 12.96, 12.96, 12.96, 12.96, 12.96, 12.96, 12.96, 12.96, 12.96, 12.96, 12.96, 12.96, 12.96, 12.96, 12.96, 12.96, 12.52, 12.52, 12.96, 12.96, 12.96, 12.96, 13.41, 13.41, 13.41, 12.96, 12.96, 12.96, 12.96, 12.96, 12.96, 12.96, 12.96, 12.52, 11.18, 9.83, 8.49, 7.6, 7.6, 8.05, 8.94, 10.28, 12.07, 13.41, 13.86, 14.3, 14.3, 14.75, 14.75, 14.75, 14.3, 14.3, 13.86, 13.86, 13.86, 13.86, 13.86, 14.3, 13.86, 13.86, 13.41, 12.52, 12.52, 12.96, 13.86, 14.75, 14.75, 15.2, 15.2, 14.75, 14.3, 13.41, 12.52, 11.62, 11.18, 10.73, 9.83, 8.49, 6.71, 5.81, 6.71, 7.6, 8.05, 6.71, 5.36, 4.47, 4.02, 4.92, 5.36, 5.36, 5.81, 6.26, 7.15, 7.6, 7.6, 6.71, 5.81, 13.41, 13.41, 13.41, 12.96, 12.96, 12.96, 12.96, 12.96, 13.41, 13.41, 13.41, 13.41, 12.96, 12.96, 12.96, 12.96, 12.52, 12.52, 12.52, 12.52, 12.52, 12.52, 12.96, 12.96, 13.41, 13.41, 13.41, 12.96, 12.52, 12.52, 12.52, 12.96, 12.96, 13.41, 13.41, 12.52, 11.18, 9.83, 9.39, 9.39, 10.28, 12.07, 12.96, 13.41, 13.41, 13.86, 13.86, 13.86, 13.86, 13.86, 13.86, 13.86, 13.86, 13.86, 13.86, 13.41, 13.41, 13.86, 13.86, 13.86, 13.41, 12.52, 12.07, 12.52, 13.41, 14.3, 14.3, 14.75, 14.75, 14.75, 14.75, 13.86, 12.96, 12.07, 11.18, 10.28, 9.83, 8.94, 8.05, 6.26, 5.36, 6.71, 7.6, 7.15, 5.36, 3.58, 4.02, 4.92, 5.36, 5.36, 5.36, 6.26, 6.71, 6.71, 7.15, 7.15, 6.26, 5.36, 13.41, 13.41, 13.41, 13.41, 13.41, 13.41, 13.41, 13.41, 13.41, 13.41, 13.41, 13.41, 13.41, 12.96, 12.96, 12.96, 12.52, 12.52, 12.52, 12.52, 12.52, 12.52, 12.52, 12.96, 12.96, 13.41, 13.41, 13.41, 12.96, 12.52, 12.52, 12.52, 12.52, 12.52, 12.96, 12.52, 12.07, 11.62, 11.18, 11.18, 11.62, 12.52, 12.96, 12.96, 12.96, 12.96, 12.96, 13.41, 13.41, 13.86, 13.86, 13.86, 13.86, 13.41, 13.41, 13.41, 13.41, 13.86, 13.86, 13.41, 12.52, 11.62, 12.07, 12.96, 13.86, 14.3, 13.86, 13.86, 14.3, 14.75, 14.75, 14.3, 12.96, 11.62, 10.73, 9.83, 8.94, 7.6, 5.81, 5.81, 5.36, 6.26, 6.71, 5.36, 3.58, 3.13, 4.47, 4.92, 4.92, 5.36, 6.26, 6.71, 6.71, 6.71, 6.71, 6.71, 5.81, 5.36, 13.41, 13.41, 13.41, 13.41, 13.41, 13.41, 13.41, 13.41, 13.41, 13.41, 13.41, 13.41, 13.41, 13.41, 12.96, 12.96, 12.52, 12.52, 12.52, 12.52, 12.52, 12.07, 12.52, 12.52, 12.96, 12.96, 12.96, 12.96, 12.96, 12.96, 12.52, 12.52, 12.52, 12.52, 12.52, 12.52, 12.52, 12.07, 11.62, 11.18, 11.62, 12.07, 12.52, 12.96, 12.96, 12.52, 12.52, 12.96, 13.41, 13.41, 13.86, 13.41, 13.41, 13.41, 12.96, 13.41, 13.41, 13.41, 13.41, 12.96, 12.07, 11.62, 12.52, 13.41, 13.86, 13.86, 13.41, 13.41, 13.86, 14.75, 14.75, 14.3, 13.41, 12.07, 10.73, 8.94, 7.6, 6.26, 4.47, 5.36, 5.36, 5.81, 5.36, 3.58, 3.13, 4.02, 4.92, 4.92, 5.36, 5.81, 6.26, 6.71, 6.71, 6.71, 6.26, 6.26, 5.81, 5.81, 13.41, 13.41, 13.41, 13.41, 13.41, 13.41, 13.41, 13.41, 13.41, 13.41, 13.41, 13.86, 13.41, 13.41, 13.41, 12.96, 12.96, 12.52, 12.52, 12.52, 12.07, 12.07, 12.07, 12.07, 12.52, 12.52, 12.96, 12.96, 12.96, 12.96, 12.96, 12.52, 12.07, 12.07, 12.07, 12.07, 12.52, 12.52, 12.07, 12.07, 11.62, 11.62, 12.07, 12.52, 12.96, 12.96, 12.96, 12.96, 12.96, 13.41, 13.41, 13.41, 12.96, 12.96, 12.96, 12.96, 13.41, 13.41, 12.96, 12.52, 12.07, 12.07, 12.52, 12.96, 12.96, 13.41, 13.41, 13.41, 13.86, 14.3, 14.75, 14.3, 13.86, 12.52, 10.28, 8.05, 6.71, 4.47, 3.13, 3.58, 4.92, 4.92, 3.58, 3.13, 3.58, 4.47, 4.92, 5.36, 5.81, 6.26, 6.26, 6.26, 6.26, 5.81, 5.81, 6.26, 6.26, 6.71, 13.86, 13.86, 13.86, 13.86, 13.86, 13.86, 13.86, 13.86, 13.86, 13.86, 13.86, 13.86, 13.86, 13.41, 13.41, 13.41, 12.96, 12.96, 12.52, 12.52, 12.07, 12.07, 12.07, 12.07, 12.07, 12.07, 12.52, 12.52, 12.96, 12.96, 12.52, 12.52, 12.07, 12.07, 12.07, 12.07, 12.52, 12.52, 12.52, 12.07, 11.62, 11.18, 11.18, 12.07, 12.52, 12.96, 13.41, 13.41, 13.41, 13.41, 12.96, 12.96, 12.96, 12.96, 12.96, 12.96, 12.96, 12.96, 12.52, 11.62, 11.62, 12.07, 12.07, 12.52, 12.96, 13.41, 13.86, 13.86, 13.86, 14.75, 14.75, 14.3, 13.41, 11.62, 9.83, 7.6, 5.36, 3.58, 2.68, 2.68, 2.68, 3.58, 3.13, 3.58, 4.47, 4.92, 5.36, 5.81, 6.26, 6.26, 6.26, 6.26, 5.81, 5.36, 6.26, 6.71, 6.71, 7.15, 13.86, 13.86, 13.86, 13.86, 13.86, 13.86, 13.86, 13.86, 13.86, 13.86, 13.86, 13.86, 13.86, 13.41, 13.41, 13.41, 12.96, 12.96, 12.96, 12.96, 12.52, 12.52, 12.52, 12.52, 12.07, 12.07, 12.07, 12.52, 12.52, 12.52, 12.52, 12.07, 12.07, 12.07, 12.52, 12.52, 12.07, 12.07, 12.07, 11.62, 11.18, 10.73, 11.18, 11.62, 12.07, 12.52, 12.96, 13.41, 13.86, 13.41, 13.41, 12.96, 12.96, 12.96, 12.96, 12.96, 12.96, 12.52, 12.07, 11.62, 12.07, 12.07, 12.07, 12.07, 12.96, 13.86, 14.3, 14.3, 14.3, 14.3, 14.3, 13.86, 12.52, 10.73, 8.49, 6.26, 4.02, 3.13, 2.68, 2.24, 2.68, 2.68, 3.13, 4.02, 4.92, 6.26, 6.26, 6.71, 6.71, 6.71, 6.26, 5.36, 4.92, 5.36, 6.71, 7.6, 7.6, 7.6, 13.86, 13.86, 13.86, 13.86, 13.86, 13.86, 13.86, 14.3, 14.3, 14.3, 14.3, 14.3, 14.3, 13.86, 13.41, 13.41, 12.96, 12.96, 12.96, 12.96, 12.96, 12.52, 12.52, 12.52, 12.07, 12.07, 12.07, 12.52, 12.52, 12.52, 12.52, 12.07, 12.07, 12.07, 12.07, 12.07, 12.07, 11.62, 11.62, 11.18, 11.18, 10.73, 11.18, 11.18, 11.62, 12.07, 12.07, 12.96, 13.41, 13.86, 13.86, 13.41, 12.96, 12.96, 12.96, 13.41, 12.96, 12.07, 11.62, 12.07, 12.07, 12.07, 12.07, 12.52, 13.41, 14.3, 14.75, 14.75, 14.3, 13.86, 13.86, 12.96, 11.18, 8.94, 6.71, 4.47, 3.13, 2.24, 2.24, 2.24, 3.13, 4.02, 3.58, 4.47, 5.36, 6.26, 6.71, 6.71, 6.71, 6.26, 5.36, 4.92, 4.92, 5.81, 7.15, 8.05, 8.05, 8.05, 14.3, 14.3, 14.3, 14.3, 14.3, 14.3, 14.3, 14.3, 14.3, 14.3, 14.3, 14.3, 14.3, 14.3, 13.86, 13.41, 13.41, 13.41, 12.96, 12.96, 12.96, 12.96, 12.52, 12.07, 12.07, 12.07, 12.07, 12.07, 12.52, 12.52, 12.52, 12.52, 12.07, 11.62, 11.62, 11.62, 11.62, 11.62, 11.18, 11.18, 11.18, 10.73, 10.73, 11.18, 11.18, 11.62, 12.07, 12.52, 12.96, 13.41, 13.41, 13.86, 13.86, 13.86, 14.3, 14.3, 13.86, 12.96, 12.07, 12.07, 12.52, 12.07, 12.52, 12.96, 13.86, 14.75, 15.2, 14.75, 14.3, 13.41, 12.52, 11.18, 8.94, 6.71, 4.92, 3.58, 2.24, 1.79, 1.79, 3.13, 4.47, 5.81, 6.71, 6.26, 6.71, 7.15, 7.15, 6.71, 6.26, 5.81, 4.92, 4.92, 5.36, 6.26, 7.6, 8.05, 8.49, 8.05, 14.3, 14.3, 14.3, 14.3, 14.3, 14.75, 14.75, 14.75, 14.75, 14.75, 14.75, 14.75, 14.3, 14.3, 14.3, 13.86, 13.41, 13.41, 13.41, 13.41, 12.96, 12.96, 12.52, 12.52, 12.07, 12.07, 11.62, 12.07, 12.07, 12.07, 12.52, 12.07, 11.62, 11.18, 11.18, 11.18, 11.18, 11.18, 11.18, 11.18, 11.18, 11.18, 11.18, 11.18, 11.18, 11.18, 11.62, 12.52, 12.52, 12.96, 12.96, 12.96, 13.41, 13.86, 14.3, 14.75, 15.2, 14.75, 13.41, 12.52, 12.52, 12.07, 12.52, 12.96, 13.86, 15.2, 16.09, 16.09, 15.2, 13.41, 11.62, 8.94, 5.81, 4.02, 3.13, 2.68, 2.68, 3.13, 3.58, 5.36, 6.26, 7.15, 7.6, 7.15, 7.6, 7.6, 7.15, 6.26, 5.81, 5.81, 5.36, 5.36, 6.26, 7.15, 7.6, 8.05, 8.49, 8.05, 14.75, 14.75, 14.75, 14.75, 14.75, 14.75, 14.75, 14.75, 14.75, 14.75, 14.75, 14.75, 14.75, 14.75, 14.3, 14.3, 13.86, 13.86, 13.41, 13.41, 13.41, 12.96, 12.96, 12.52, 12.07, 12.07, 12.07, 12.07, 12.07, 12.07, 12.07, 12.07, 11.62, 10.73, 10.73, 10.73, 10.73, 10.73, 10.73, 10.73, 11.18, 11.18, 10.73, 10.73, 10.73, 10.73, 11.18, 11.62, 12.07, 12.07, 12.07, 11.62, 11.18, 11.18, 10.73, 11.62, 12.96, 14.75, 14.75, 12.96, 11.18, 11.18, 12.07, 12.52, 12.96, 13.41, 14.75, 16.09, 16.54, 15.2, 12.07, 8.05, 3.58, 1.79, 2.24, 3.13, 4.47, 5.36, 5.81, 6.71, 7.15, 7.15, 7.15, 7.6, 7.6, 7.6, 7.15, 7.15, 6.71, 7.15, 6.71, 6.71, 7.15, 7.6, 8.05, 8.49, 8.49, 8.05, 15.2, 15.2, 15.2, 15.2, 15.2, 15.2, 15.2, 15.2, 15.2, 15.2, 15.2, 15.2, 15.2, 14.75, 14.75, 14.3, 14.3, 13.86, 13.86, 13.86, 13.41, 13.41, 12.96, 12.52, 12.52, 12.07, 12.07, 12.07, 12.07, 12.07, 12.07, 11.62, 10.73, 10.28, 10.28, 10.28, 10.28, 10.73, 10.73, 11.18, 11.18, 11.18, 10.73, 10.73, 10.73, 10.73, 10.73, 11.18, 11.18, 11.18, 11.18, 10.73, 10.28, 10.28, 9.39, 9.39, 9.83, 11.18, 14.3, 12.96, 10.28, 8.94, 9.39, 10.28, 10.73, 10.73, 9.83, 10.28, 12.52, 15.2, 14.75, 10.73, 5.81, 2.68, 3.13, 4.47, 5.36, 5.81, 6.71, 7.15, 7.6, 7.15, 7.6, 8.05, 8.05, 8.49, 8.94, 8.94, 8.49, 8.49, 8.05, 8.05, 8.05, 8.49, 8.49, 8.49, 8.05, 8.05, 15.2, 15.2, 15.2, 15.2, 15.2, 15.2, 15.2, 15.2, 15.2, 15.2, 15.2, 15.2, 15.2, 15.2, 14.75, 14.75, 14.3, 14.3, 14.3, 13.86, 13.86, 13.41, 12.96, 12.52, 12.52, 12.07, 12.07, 12.07, 12.07, 12.07, 11.62, 11.18, 10.28, 9.83, 9.83, 10.28, 10.73, 10.73, 11.18, 11.18, 11.18, 11.18, 10.73, 10.73, 10.28, 10.28, 10.73, 10.73, 10.73, 10.73, 10.73, 10.73, 10.28, 9.83, 8.94, 8.94, 8.49, 9.39, 12.52, 11.62, 9.39, 6.71, 7.15, 8.05, 8.49, 7.6, 6.71, 8.05, 10.73, 13.41, 16.09, 16.54, 13.41, 9.39, 8.05, 7.6, 7.15, 6.26, 6.71, 7.6, 8.05, 8.49, 8.49, 8.94, 9.39, 9.39, 10.28, 9.83, 9.39, 8.94, 8.94, 9.39, 8.94, 8.49, 8.49, 8.05, 8.05, 8.05, 15.65, 15.65, 15.65, 15.65, 15.65, 15.65, 15.65, 15.65, 15.65, 15.65, 15.65, 15.65, 15.65, 15.2, 15.2, 14.75, 14.75, 14.75, 14.3, 14.3, 13.86, 13.41, 12.96, 12.52, 12.52, 12.07, 12.07, 12.07, 12.07, 11.62, 11.18, 10.73, 10.28, 10.28, 10.28, 10.73, 11.18, 11.18, 11.62, 11.62, 11.18, 11.18, 10.73, 10.73, 10.28, 10.28, 10.73, 10.73, 10.73, 10.73, 10.28, 10.28, 10.28, 9.83, 9.83, 9.39, 8.49, 9.39, 10.73, 9.83, 8.05, 5.81, 6.26, 7.6, 8.05, 7.15, 6.26, 7.15, 9.39, 12.52, 15.65, 18.78, 16.99, 13.86, 12.52, 12.07, 10.73, 9.83, 9.39, 9.83, 10.28, 10.73, 10.28, 10.73, 10.73, 10.73, 9.83, 9.39, 8.94, 8.94, 9.39, 9.39, 8.49, 8.05, 8.05, 7.6, 7.6, 7.6, 16.09, 16.09, 15.65, 15.65, 15.65, 15.65, 15.65, 15.65, 15.65, 15.65, 15.65, 15.65, 15.65, 15.65, 15.2, 15.2, 15.2, 14.75, 14.75, 14.3, 14.3, 13.86, 13.41, 12.96, 12.52, 12.07, 12.07, 11.62, 11.62, 11.62, 11.18, 10.73, 10.73, 10.73, 11.18, 11.18, 11.62, 11.62, 11.62, 11.18, 11.18, 10.73, 10.73, 10.73, 10.28, 10.28, 10.73, 10.28, 10.28, 10.28, 10.28, 9.83, 9.83, 9.83, 9.39, 9.39, 9.39, 9.39, 8.94, 8.49, 7.15, 5.81, 6.71, 8.49, 8.94, 8.05, 6.71, 7.15, 8.05, 11.18, 16.09, 19.67, 17.88, 15.2, 14.3, 14.3, 13.86, 13.41, 12.96, 13.41, 13.41, 13.41, 12.96, 12.52, 12.07, 11.18, 10.28, 9.83, 9.83, 9.39, 9.83, 9.39, 8.05, 7.6, 7.6, 7.6, 7.6, 7.6, 16.09, 16.09, 16.09, 16.09, 16.09, 16.09, 16.09, 16.09, 16.09, 16.09, 16.09, 16.09, 16.09, 15.65, 15.65, 15.2, 15.2, 15.2, 14.75, 14.75, 14.3, 13.86, 13.41, 12.96, 12.52, 12.07, 12.07, 11.62, 11.62, 11.62, 11.62, 11.62, 11.62, 11.62, 11.62, 11.62, 11.62, 11.62, 11.62, 11.18, 11.18, 10.73, 10.73, 10.28, 10.28, 10.28, 10.73, 10.73, 10.28, 10.28, 10.28, 9.83, 9.83, 9.83, 9.39, 9.39, 9.39, 8.94, 8.94, 8.94, 7.15, 6.26, 6.71, 8.49, 9.39, 9.39, 8.49, 8.05, 8.49, 11.62, 16.99, 19.22, 17.43, 15.2, 14.3, 13.86, 14.3, 14.75, 15.2, 14.75, 14.3, 14.3, 13.41, 11.62, 10.73, 10.28, 9.83, 9.83, 9.83, 9.83, 9.83, 9.39, 8.49, 8.05, 8.05, 8.05, 8.49, 8.49, 16.54, 16.54, 16.54, 16.09, 16.09, 16.09, 16.09, 16.09, 16.09, 16.09, 16.09, 16.09, 16.09, 16.09, 15.65, 15.65, 15.2, 15.2, 15.2, 14.75, 14.3, 13.86, 13.86, 12.96, 12.52, 12.07, 12.07, 12.07, 12.07, 12.07, 12.52, 12.52, 12.52, 12.07, 11.62, 11.62, 11.62, 11.62, 11.62, 11.18, 11.18, 10.73, 10.73, 10.28, 10.28, 10.28, 10.28, 10.73, 10.28, 10.28, 9.83, 9.83, 9.83, 9.39, 9.39, 9.39, 8.94, 8.94, 8.94, 8.94, 8.05, 6.71, 7.15, 8.94, 9.83, 9.83, 9.83, 9.39, 9.83, 12.52, 16.09, 18.33, 17.88, 15.2, 13.41, 12.96, 13.41, 13.86, 13.86, 13.41, 12.07, 11.18, 10.28, 9.83, 9.39, 9.39, 9.39, 9.83, 9.83, 9.83, 9.83, 9.83, 9.39, 8.94, 8.94, 9.39, 9.39, 9.39, 16.54, 16.54, 16.54, 16.54, 16.54, 16.54, 16.54, 16.54, 16.54, 16.54, 16.54, 16.54, 16.09, 16.09, 15.65, 15.65, 15.65, 15.65, 15.2, 14.75, 14.75, 14.3, 13.86, 13.41, 12.52, 12.07, 12.07, 12.52, 12.52, 12.52, 12.52, 12.52, 12.07, 12.07, 11.62, 11.18, 11.18, 11.18, 11.18, 11.18, 10.73, 10.73, 10.28, 10.28, 9.83, 10.28, 10.28, 10.73, 10.28, 9.83, 9.83, 9.39, 9.39, 9.39, 9.39, 9.39, 8.94, 8.94, 8.94, 8.94, 8.94, 8.05, 8.05, 8.94, 9.39, 9.39, 9.83, 10.28, 11.18, 12.96, 15.65, 17.43, 16.99, 14.75, 12.52, 11.62, 12.07, 11.62, 9.83, 9.83, 9.83, 9.39, 9.39, 8.94, 8.94, 9.39, 10.28, 10.28, 9.83, 10.28, 10.73, 10.73, 10.73, 9.83, 10.28, 10.28, 10.73, 10.73, 16.99, 16.54, 16.54, 16.54, 16.54, 16.54, 16.54, 16.54, 16.54, 16.54, 16.54, 16.54, 16.54, 16.09, 16.09, 15.65, 15.65, 15.65, 15.2, 14.75, 14.75, 14.3, 13.86, 13.41, 12.52, 12.52, 12.52, 12.52, 12.96, 12.52, 12.52, 12.07, 12.07, 11.62, 11.18, 11.18, 11.18, 11.18, 11.18, 10.73, 10.73, 10.73, 10.28, 10.28, 9.83, 10.28, 10.28, 10.28, 10.28, 9.83, 9.39, 9.39, 9.39, 9.39, 8.94, 8.94, 8.94, 8.94, 8.94, 9.39, 9.39, 9.39, 8.94, 8.94, 8.94, 8.94, 9.39, 10.28, 11.62, 13.41, 15.65, 17.43, 16.54, 12.96, 10.28, 9.83, 9.83, 8.49, 7.6, 7.6, 8.94, 9.83, 10.28, 10.28, 10.73, 11.62, 12.07, 12.96, 12.96, 10.73, 11.62, 12.07, 11.62, 11.18, 11.18, 11.18, 11.18, 11.18, 16.99, 16.99, 16.99, 16.99, 16.99, 16.99, 16.99, 16.99, 16.99, 16.99, 16.54, 16.54, 16.54, 16.54, 16.09, 16.09, 15.65, 15.65, 15.2, 15.2, 14.75, 14.3, 13.86, 13.41, 12.96, 12.52, 12.52, 12.96, 12.96, 12.52, 12.07, 11.62, 11.62, 11.62, 11.18, 11.18, 10.73, 10.73, 10.73, 10.73, 10.73, 10.28, 10.28, 9.83, 9.83, 9.83, 10.28, 9.83, 9.83, 9.83, 9.39, 9.39, 9.39, 8.94, 8.94, 8.94, 9.39, 9.39, 9.39, 9.39, 9.39, 9.39, 9.39, 8.94, 8.94, 8.94, 8.94, 9.83, 10.73, 12.52, 14.75, 17.43, 16.99, 9.83, 7.15, 8.49, 8.05, 7.15, 6.71, 7.6, 8.94, 10.73, 12.07, 12.52, 12.96, 13.41, 14.3, 14.75, 14.75, 12.96, 12.52, 12.52, 12.07, 11.62, 11.62, 11.18, 11.18, 11.18, 16.99, 16.99, 16.99, 16.99, 16.99, 16.99, 16.99, 16.99, 16.99, 16.99, 16.99, 16.99, 16.54, 16.54, 16.54, 16.09, 15.65, 15.65, 15.2, 15.2, 14.75, 14.3, 13.86, 13.41, 12.96, 12.96, 12.96, 12.96, 12.96, 12.52, 12.07, 11.62, 11.62, 11.62, 11.18, 10.73, 10.73, 10.73, 10.28, 10.28, 10.28, 9.83, 9.83, 9.83, 9.83, 9.83, 9.83, 9.83, 9.83, 9.39, 9.39, 9.39, 8.94, 8.94, 8.94, 8.94, 9.39, 9.39, 9.39, 9.39, 9.39, 9.39, 9.39, 8.94, 8.94, 8.94, 8.94, 9.39, 9.83, 10.73, 12.52, 14.75, 9.39, 2.68, 4.47, 7.15, 8.05, 7.6, 7.6, 8.49, 9.83, 11.18, 12.07, 12.52, 12.96, 13.86, 14.3, 15.2, 15.2, 14.75, 13.41, 12.96, 12.52, 12.07, 11.62, 11.18, 10.73, 10.73, 16.99, 16.99, 16.99, 16.99, 16.99, 17.43, 17.43, 17.43, 16.99, 16.99, 16.99, 16.99, 16.99, 16.54, 16.54, 16.09, 16.09, 15.65, 15.65, 15.2, 14.75, 14.3, 13.86, 13.41, 12.96, 12.96, 12.96, 12.96, 12.96, 12.52, 12.07, 12.07, 11.62, 11.62, 11.18, 10.73, 10.73, 10.28, 10.28, 10.28, 9.83, 9.83, 9.83, 9.83, 9.83, 9.83, 9.83, 9.83, 9.39, 9.39, 9.39, 8.94, 8.94, 8.49, 8.49, 8.49, 8.94, 9.39, 9.83, 9.83, 9.39, 9.39, 8.94, 9.39, 9.39, 9.39, 9.39, 9.83, 9.83, 9.83, 11.18, 17.43, 15.2, 6.71, 4.47, 6.71, 8.94, 9.39, 9.39, 9.39, 10.28, 11.18, 11.62, 12.07, 12.96, 13.86, 14.75, 15.2, 14.75, 14.75, 13.86, 12.96, 12.07, 11.62, 11.18, 10.73, 10.73, 10.73, 16.99, 16.99, 16.99, 17.43, 17.43, 17.43, 17.43, 17.43, 17.43, 17.43, 17.43, 16.99, 16.99, 16.99, 16.54, 16.54, 16.09, 15.65, 15.65, 15.2, 14.75, 14.3, 13.41, 12.96, 12.96, 12.96, 12.96, 12.96, 12.96, 12.52, 12.52, 12.07, 11.62, 11.62, 11.18, 10.73, 10.28, 10.28, 10.28, 9.83, 9.83, 9.39, 9.39, 9.39, 9.39, 9.39, 9.39, 9.39, 8.94, 8.94, 8.94, 8.94, 8.49, 8.49, 8.49, 8.49, 8.49, 8.94, 9.83, 10.28, 10.28, 9.39, 9.39, 9.39, 9.83, 9.83, 9.83, 9.83, 9.83, 11.18, 12.96, 16.54, 18.78, 14.75, 9.83, 8.05, 8.94, 10.28, 10.28, 10.73, 10.73, 10.73, 10.73, 12.07, 13.41, 14.3, 14.3, 14.3, 14.3, 14.75, 14.75, 13.41, 12.07, 11.18, 10.73, 10.73, 11.18, 11.18, 16.99, 16.99, 17.43, 17.43, 17.43, 17.43, 17.43, 17.43, 17.43, 17.43, 17.43, 17.43, 16.99, 16.99, 16.54, 16.54, 16.09, 16.09, 15.65, 15.2, 14.75, 14.3, 13.41, 12.96, 12.52, 12.52, 12.96, 12.96, 12.96, 12.96, 12.52, 12.07, 11.62, 11.18, 10.73, 10.28, 10.28, 9.83, 9.83, 9.83, 9.39, 9.39, 9.39, 9.39, 9.39, 9.39, 8.94, 8.94, 8.94, 8.94, 8.94, 8.49, 8.49, 8.05, 8.05, 8.05, 8.05, 8.49, 9.39, 10.28, 10.28, 9.83, 9.83, 9.39, 9.83, 9.83, 9.83, 10.28, 11.18, 11.62, 13.41, 15.65, 17.88, 18.33, 15.65, 12.07, 9.39, 9.39, 10.28, 10.73, 10.28, 9.83, 10.73, 12.52, 13.41, 13.86, 13.86, 13.86, 13.86, 14.3, 14.75, 14.3, 12.96, 11.62, 11.18, 11.18, 11.62, 11.62, 17.43, 17.43, 17.43, 17.43, 17.43, 17.43, 17.43, 17.43, 17.43, 17.43, 17.43, 17.43, 17.43, 16.99, 16.99, 16.54, 16.09, 16.09, 15.65, 15.2, 14.75, 14.3, 13.41, 12.96, 12.52, 12.52, 12.96, 12.96, 12.96, 12.96, 12.52, 11.62, 11.18, 10.73, 10.28, 9.83, 9.83, 9.83, 9.39, 9.39, 9.39, 9.39, 9.39, 9.39, 9.39, 8.94, 8.94, 8.49, 8.49, 8.49, 8.49, 8.49, 8.05, 8.05, 8.05, 8.05, 8.05, 8.05, 8.49, 9.83, 10.28, 10.28, 10.28, 9.83, 9.83, 9.83, 9.83, 11.18, 11.62, 12.52, 13.86, 15.2, 16.99, 18.33, 18.33, 16.09, 11.18, 8.05, 8.49, 9.83, 10.73, 10.73, 11.62, 12.07, 12.07, 12.52, 13.41, 13.86, 13.86, 14.3, 14.75, 15.2, 13.86, 12.52, 12.07, 12.07, 12.07, 12.07, 17.43, 17.43, 17.43, 17.43, 17.43, 17.43, 17.43, 17.88, 17.88, 17.43, 17.43, 17.43, 17.43, 16.99, 16.99, 16.54, 16.54, 16.09, 15.65, 15.2, 14.75, 14.3, 13.41, 12.96, 12.52, 12.96, 12.96, 13.41, 12.96, 12.52, 12.07, 11.62, 10.73, 10.28, 10.28, 9.83, 9.83, 9.83, 9.39, 9.39, 9.39, 8.94, 8.94, 8.94, 8.94, 8.49, 8.49, 8.49, 8.49, 8.49, 8.49, 8.49, 8.05, 8.05, 8.05, 7.6, 7.6, 8.05, 8.49, 9.39, 9.83, 10.28, 10.28, 9.83, 9.83, 9.83, 10.73, 11.62, 12.07, 13.41, 14.75, 15.65, 16.54, 16.99, 17.88, 17.88, 14.75, 10.28, 8.49, 9.39, 10.73, 11.18, 11.62, 11.62, 11.62, 12.07, 12.96, 13.86, 14.3, 14.75, 15.2, 15.65, 14.75, 13.86, 13.41, 12.96, 12.96, 12.96, 17.43, 17.43, 17.43, 17.43, 17.43, 17.43, 17.88, 17.88, 17.88, 17.88, 17.43, 17.43, 17.43, 16.99, 16.99, 16.54, 16.54, 16.09, 15.65, 15.2, 14.75, 14.3, 13.41, 12.96, 12.96, 13.41, 13.41, 12.96, 12.96, 12.52, 12.07, 11.18, 10.73, 10.28, 10.28, 9.83, 9.83, 9.83, 9.83, 9.39, 9.39, 8.94, 8.94, 8.94, 8.94, 8.49, 8.49, 8.49, 8.49, 8.49, 8.49, 8.49, 8.49, 8.05, 7.6, 7.6, 7.6, 8.05, 8.49, 8.94, 9.39, 9.83, 9.83, 9.83, 9.83, 10.73, 11.62, 12.07, 12.52, 13.41, 14.75, 16.09, 16.99, 16.99, 16.99, 16.54, 16.09, 14.3, 12.07, 10.73, 10.73, 10.73, 11.18, 11.18, 11.18, 11.62, 12.52, 13.41, 14.75, 15.65, 15.65, 16.09, 16.09, 15.2, 14.3, 13.86, 13.41, 13.41, 17.43, 17.43, 17.43, 17.43, 17.43, 17.88, 17.88, 17.88, 17.88, 17.88, 17.88, 17.43, 17.43, 16.99, 16.99, 16.54, 16.54, 16.09, 15.65, 15.2, 14.75, 14.3, 13.41, 13.41, 13.41, 13.41, 13.41, 12.96, 12.96, 12.52, 11.62, 11.18, 10.73, 10.28, 10.28, 9.83, 9.83, 9.83, 9.83, 9.83, 9.39, 9.39, 8.94, 8.94, 8.94, 8.49, 8.05, 8.49, 8.49, 8.49, 8.49, 8.49, 8.05, 8.05, 7.6, 7.6, 7.6, 8.05, 8.05, 8.94, 9.39, 9.39, 9.39, 8.94, 9.83, 10.73, 11.62, 12.52, 13.41, 13.86, 14.75, 16.09, 17.88, 17.43, 16.09, 14.75, 13.86, 14.3, 14.75, 13.41, 12.07, 11.18, 10.73, 11.18, 11.62, 12.07, 12.96, 13.86, 14.75, 15.65, 15.65, 16.09, 15.65, 15.65, 14.75, 14.3, 13.41, 13.41, 17.43, 17.43, 17.43, 17.43, 17.88, 17.88, 17.88, 17.88, 17.88, 17.88, 17.88, 17.88, 17.43, 16.99, 16.99, 16.54, 16.54, 16.09, 15.65, 15.2, 14.75, 14.3, 13.86, 13.41, 13.41, 13.41, 13.41, 12.96, 12.96, 12.52, 11.62, 11.18, 10.73, 10.28, 10.28, 10.28, 10.28, 10.28, 9.83, 9.83, 9.39, 9.39, 8.94, 8.94, 8.94, 8.49, 8.49, 8.49, 8.49, 8.49, 8.49, 8.05, 7.6, 7.6, 7.6, 7.6, 7.6, 8.05, 8.49, 8.49, 8.94, 8.94, 8.94, 8.94, 9.39, 10.28, 11.62, 12.52, 13.86, 14.3, 14.75, 15.65, 17.88, 18.33, 15.2, 12.07, 11.18, 12.52, 14.75, 14.75, 13.41, 12.07, 11.62, 12.07, 12.52, 13.41, 14.3, 14.75, 15.65, 15.65, 15.65, 15.2, 15.2, 15.2, 14.75, 14.3, 13.86, 13.86, 17.43, 17.43, 17.43, 17.88, 17.88, 17.88, 17.88, 17.88, 17.88, 17.88, 17.88, 17.88, 17.43, 16.99, 16.99, 16.54, 16.54, 16.09, 15.65, 15.2, 14.75, 14.3, 13.86, 13.86, 13.41, 13.41, 13.41, 12.96, 12.96, 12.52, 12.07, 11.18, 10.73, 10.73, 10.28, 10.28, 10.28, 10.28, 10.28, 9.83, 9.39, 9.39, 9.39, 8.94, 8.94, 8.94, 8.94, 8.49, 8.49, 8.49, 8.05, 7.6, 7.6, 7.15, 7.15, 7.6, 7.6, 8.05, 8.49, 8.49, 8.94, 8.94, 8.49, 8.94, 8.94, 9.39, 10.73, 12.07, 13.41, 14.75, 15.2, 15.65, 16.99, 19.22, 16.09, 10.28, 9.39, 11.18, 13.86, 15.2, 14.3, 13.86, 13.41, 13.41, 14.3, 14.75, 15.2, 15.65, 16.09, 15.65, 15.2, 14.75, 14.3, 14.3, 14.75, 14.3, 13.86, 13.86, 17.43, 17.43, 17.88, 17.88, 17.88, 17.88, 17.88, 17.88, 17.88, 17.88, 17.88, 17.88, 17.43, 17.43, 16.99, 16.54, 16.09, 16.09, 15.65, 15.2, 14.75, 14.3, 13.86, 13.86, 13.86, 13.41, 13.41, 13.41, 12.96, 12.52, 12.07, 11.62, 11.18, 10.73, 10.73, 10.28, 10.28, 10.28, 10.28, 9.83, 9.83, 9.39, 9.39, 9.39, 9.39, 9.39, 8.94, 8.94, 8.49, 8.49, 8.05, 7.6, 7.15, 7.15, 7.15, 7.15, 8.05, 8.49, 8.49, 8.94, 8.94, 8.49, 8.94, 8.94, 8.94, 9.83, 10.28, 11.62, 13.41, 14.75, 15.65, 16.09, 16.99, 18.78, 17.88, 12.52, 10.28, 11.18, 13.41, 14.3, 14.75, 14.75, 14.75, 14.75, 14.75, 15.2, 15.65, 16.09, 15.65, 14.75, 13.86, 13.41, 13.41, 13.86, 14.3, 14.3, 14.3, 14.3, 17.43, 17.43, 17.88, 17.88, 17.88, 17.88, 17.88, 17.88, 17.88, 17.88, 17.88, 17.88, 17.43, 17.43, 16.99, 16.54, 16.09, 16.09, 15.65, 15.2, 14.75, 14.3, 13.86, 13.86, 13.86, 13.86, 13.41, 13.41, 12.96, 12.52, 12.07, 11.62, 11.18, 10.73, 10.73, 10.73, 10.73, 10.28, 10.28, 10.28, 9.83, 9.83, 9.83, 9.39, 9.39, 9.39, 9.39, 9.39, 8.94, 8.94, 8.49, 8.05, 7.6, 7.15, 7.15, 7.6, 8.05, 8.49, 8.94, 8.94, 8.49, 8.49, 8.49, 8.49, 8.94, 9.83, 10.73, 11.62, 12.96, 14.3, 15.65, 16.54, 17.88, 19.22, 19.22, 16.09, 13.41, 12.96, 13.41, 14.3, 14.75, 14.75, 15.2, 15.2, 15.2, 15.2, 15.65, 15.65, 14.75, 13.41, 12.96, 12.52, 12.96, 13.41, 14.3, 14.3, 14.3, 14.3, 17.88, 17.88, 17.88, 17.88, 17.88, 17.88, 17.88, 17.88, 17.88, 17.88, 17.88, 17.88, 17.43, 17.43, 16.99, 16.54, 16.09, 15.65, 15.65, 15.2, 14.75, 14.3, 14.3, 13.86, 13.86, 13.41, 13.41, 12.96, 12.96, 12.52, 12.07, 11.62, 11.18, 10.73, 10.73, 10.73, 10.73, 10.73, 10.28, 10.28, 10.28, 9.83, 9.83, 9.83, 9.83, 9.83, 9.83, 9.39, 9.39, 9.39, 8.94, 8.49, 8.05, 7.6, 7.6, 7.6, 8.49, 8.94, 8.94, 8.94, 8.94, 8.49, 8.49, 8.49, 8.94, 9.83, 10.73, 11.62, 12.52, 13.86, 15.2, 16.54, 18.33, 19.22, 19.22, 17.88, 16.09, 15.2, 14.75, 14.3, 14.3, 14.75, 15.2, 15.2, 15.65, 15.65, 15.2, 14.75, 13.86, 12.96, 12.52, 12.52, 12.96, 13.41, 13.86, 14.3, 14.75, 14.75, 17.88, 17.88, 17.88, 17.88, 17.88, 17.88, 18.33, 17.88, 17.88, 17.88, 17.88, 17.43, 17.43, 16.99, 16.99, 16.54, 16.09, 15.65, 15.2, 15.2, 14.75, 14.3, 14.3, 13.86, 13.86, 13.41, 13.41, 12.96, 12.52, 12.52, 12.07, 11.62, 11.18, 11.18, 10.73, 10.73, 10.73, 10.73, 10.73, 10.28, 10.28, 10.28, 10.28, 9.83, 9.83, 9.83, 9.83, 9.83, 9.83, 9.83, 9.39, 8.94, 8.94, 8.49, 8.05, 8.05, 8.49, 8.94, 8.94, 8.94, 8.94, 8.49, 8.49, 8.94, 9.39, 9.83, 10.73, 11.62, 12.52, 13.41, 14.75, 16.54, 18.78, 19.67, 18.78, 17.88, 16.99, 16.54, 15.65, 14.75, 14.3, 14.75, 15.2, 15.65, 15.65, 15.65, 15.2, 13.86, 12.96, 12.52, 12.52, 12.52, 12.96, 13.86, 14.3, 14.75, 14.75, 14.75, 17.88, 17.88, 17.88, 17.88, 17.88, 18.33, 18.33, 17.88, 17.88, 17.88, 17.88, 17.43, 16.99, 16.99, 16.54, 16.54, 16.09, 15.65, 15.2, 14.75, 14.75, 14.3, 14.3, 13.86, 13.86, 13.41, 13.41, 12.96, 12.52, 12.52, 12.07, 11.62, 11.18, 11.18, 11.18, 11.18, 11.18, 10.73, 10.73, 10.73, 10.28, 10.28, 10.28, 10.28, 10.28, 9.83, 9.83, 10.28, 10.28, 9.83, 9.83, 9.39, 9.39, 8.94, 8.94, 8.49, 8.49, 8.94, 9.39, 9.39, 9.39, 8.94, 8.94, 9.39, 9.83, 10.28, 11.18, 12.07, 12.96, 13.41, 14.75, 16.09, 18.33, 20.12, 19.67, 17.88, 16.99, 16.99, 16.09, 15.2, 15.2, 15.2, 15.65, 15.65, 15.65, 15.2, 14.3, 13.41, 12.96, 12.52, 12.52, 12.96, 13.41, 13.86, 14.3, 14.75, 15.2, 15.2, 17.88, 17.88, 17.88, 17.88, 17.88, 17.88, 18.33, 17.88, 17.88, 17.88, 17.88, 17.43, 16.99, 16.99, 16.54, 16.09, 16.09, 15.65, 15.2, 14.75, 14.3, 14.3, 13.86, 13.86, 13.86, 13.41, 13.41, 12.96, 12.52, 12.52, 12.07, 11.62, 11.62, 11.18, 11.18, 11.18, 11.18, 11.18, 10.73, 10.73, 10.73, 10.73, 10.73, 10.73, 10.28, 10.28, 10.28, 10.28, 10.28, 10.28, 10.28, 9.83, 9.83, 9.83, 9.39, 9.39, 9.39, 9.39, 9.83, 9.83, 9.83, 9.39, 9.83, 9.83, 10.28, 10.73, 11.62, 12.52, 12.96, 13.41, 14.3, 15.65, 17.43, 20.56, 21.01, 18.78, 16.99, 16.09, 15.65, 15.65, 15.65, 16.09, 16.09, 16.09, 15.65, 14.75, 14.3, 13.41, 12.96, 12.96, 12.96, 13.41, 13.86, 14.3, 14.75, 14.75, 14.75, 15.2, 17.88, 17.88, 17.88, 17.88, 17.88, 17.88, 17.88, 17.88, 17.88, 17.88, 17.43, 16.99, 16.99, 16.54, 16.54, 16.09, 16.09, 15.65, 15.2, 14.75, 14.3, 14.3, 13.86, 13.86, 13.86, 13.41, 13.41, 12.96, 12.96, 12.52, 12.07, 12.07, 11.62, 11.62, 11.18, 11.18, 11.18, 11.18, 11.18, 10.73, 10.73, 10.73, 10.73, 10.73, 10.28, 10.28, 10.28, 10.28, 10.73, 10.73, 10.28, 10.28, 10.28, 10.28, 10.28, 9.83, 10.28, 10.28, 10.73, 10.73, 10.28, 10.28, 10.28, 10.73, 10.73, 11.18, 12.07, 12.52, 12.96, 13.41, 14.3, 15.2, 16.54, 19.67, 21.9, 21.01, 17.88, 15.65, 14.75, 14.75, 15.65, 16.09, 16.09, 16.09, 15.2, 14.75, 14.3, 13.86, 13.41, 12.96, 13.41, 13.86, 14.3, 14.75, 14.3, 13.86, 13.41, 14.75, 17.43, 17.43, 17.88, 17.88, 17.88, 17.88, 17.88, 17.88, 17.88, 17.43, 17.43, 16.99, 16.99, 16.54, 16.09, 16.09, 15.65, 15.65, 14.75, 14.75, 14.3, 14.3, 13.86, 13.86, 13.86, 13.41, 13.41, 12.96, 12.96, 12.52, 12.52, 12.07, 11.62, 11.62, 11.62, 11.62, 11.18, 11.18, 11.18, 11.18, 11.18, 10.73, 11.18, 11.18, 10.73, 10.28, 10.28, 10.28, 10.73, 10.73, 10.73, 10.73, 10.73, 10.73, 10.73, 10.73, 10.73, 10.73, 11.18, 11.18, 11.18, 10.73, 10.73, 11.18, 11.62, 12.07, 12.07, 12.52, 13.41, 13.41, 14.3, 15.2, 16.09, 18.33, 21.01, 22.8, 20.56, 16.54, 14.3, 14.3, 15.2, 16.09, 16.54, 16.09, 15.65, 15.2, 14.3, 13.86, 13.41, 13.41, 13.41, 13.86, 14.3, 13.86, 13.41, 12.96, 12.52, 12.52, 17.43, 17.43, 17.88, 17.88, 17.88, 17.88, 17.88, 17.88, 17.43, 17.43, 16.99, 16.99, 16.54, 16.54, 16.09, 16.09, 15.65, 15.2, 15.2, 14.3, 14.3, 14.3, 13.86, 13.86, 13.41, 13.41, 13.41, 12.96, 12.96, 12.52, 12.52, 12.07, 12.07, 11.62, 11.62, 11.62, 11.62, 11.62, 11.18, 11.18, 11.18, 11.18, 11.18, 11.18, 11.18, 10.73, 10.73, 10.73, 10.73, 10.73, 10.73, 10.73, 10.73, 10.73, 11.18, 11.18, 11.18, 11.62, 11.62, 11.62, 11.62, 11.62, 11.62, 11.62, 12.07, 12.52, 12.96, 12.96, 13.41, 13.86, 14.3, 15.2, 16.09, 17.43, 19.67, 21.9, 23.25, 20.12, 16.54, 15.2, 15.2, 15.65, 16.54, 16.09, 16.09, 15.2, 14.75, 13.86, 13.41, 12.96, 13.41, 13.86, 13.41, 12.96, 12.07, 12.07, 12.07, 12.07, 17.43, 17.43, 17.43, 17.88, 17.88, 17.88, 17.88, 17.43, 17.43, 16.99, 16.99, 16.54, 16.54, 16.09, 16.09, 15.65, 15.65, 15.2, 15.2, 14.3, 14.3, 14.3, 13.86, 13.86, 13.41, 13.41, 13.41, 12.96, 12.96, 12.52, 12.52, 12.07, 12.07, 11.62, 11.62, 11.62, 11.62, 11.62, 11.62, 11.18, 11.18, 11.18, 11.18, 11.18, 11.18, 11.18, 11.18, 10.73, 10.73, 11.18, 11.18, 11.18, 11.18, 11.18, 11.18, 11.62, 11.62, 11.62, 12.07, 12.07, 12.07, 12.07, 12.07, 12.52, 12.96, 13.41, 13.41, 13.41, 13.86, 13.86, 14.3, 15.2, 16.09, 16.99, 18.78, 20.56, 22.8, 23.25, 20.56, 18.33, 16.54, 16.09, 16.09, 16.09, 15.65, 15.2, 14.75, 13.86, 12.96, 12.96, 12.96, 12.52, 11.62, 11.62, 12.07, 12.07, 12.07, 12.07, 17.43, 17.43, 17.43, 17.43, 17.88, 17.88, 17.43, 17.43, 16.99, 16.99, 16.54, 16.54, 16.09, 16.09, 15.65, 15.65, 15.65, 15.2, 14.75, 14.3, 14.3, 14.3, 13.86, 13.86, 13.41, 13.41, 12.96, 12.96, 12.52, 12.52, 12.07, 12.07, 12.07, 12.07, 12.07, 12.07, 12.07, 11.62, 11.62, 11.62, 11.62, 11.18, 11.18, 11.18, 11.62, 11.18, 11.18, 11.18, 11.18, 11.18, 11.18, 11.62, 11.62, 11.62, 11.62, 12.07, 12.07, 12.07, 12.52, 12.52, 12.52, 12.96, 12.96, 13.41, 13.41, 13.86, 13.86, 14.3, 13.86, 14.3, 14.75, 15.65, 16.54, 16.99, 18.33, 19.67, 21.46, 22.8, 22.8, 21.46, 19.22, 17.43, 16.09, 15.65, 15.2, 15.2, 14.3, 13.41, 12.96, 12.52, 11.62, 10.28, 10.73, 11.62, 12.07, 12.52, 12.52, 12.52, 17.43, 17.43, 17.43, 17.43, 17.43, 17.43, 17.43, 16.99, 16.99, 16.54, 16.54, 16.09, 16.09, 15.65, 15.65, 15.65, 15.2, 15.2, 14.75, 14.3, 14.3, 13.86, 13.86, 13.86, 13.41, 13.41, 12.96, 12.96, 12.52, 12.52, 12.07, 12.07, 12.07, 12.07, 12.07, 12.07, 12.07, 12.07, 11.62, 11.62, 11.62, 11.62, 11.62, 11.62, 11.62, 11.62, 11.62, 11.62, 11.62, 11.62, 11.62, 11.62, 11.62, 12.07, 12.07, 12.07, 12.52, 12.52, 12.96, 12.96, 12.96, 13.41, 13.41, 13.86, 13.86, 14.3, 14.3, 14.75, 14.75, 14.75, 14.75, 15.65, 16.54, 16.99, 17.88, 19.22, 20.56, 21.9, 22.8, 22.35, 21.46, 19.22, 16.99, 15.2, 14.75, 14.75, 13.86, 12.96, 12.52, 11.62, 10.28, 10.28, 11.18, 12.07, 12.52, 12.07, 12.07, 12.07, 17.43, 17.43, 17.43, 17.43, 17.43, 17.43, 16.99, 16.99, 16.54, 16.54, 16.09, 16.09, 15.65, 15.65, 15.65, 15.2, 15.2, 14.75, 14.75, 14.3, 13.86, 13.86, 13.86, 13.41, 13.41, 13.41, 12.96, 12.96, 12.52, 12.52, 12.07, 12.07, 12.07, 12.07, 12.07, 12.07, 12.07, 12.07, 11.62, 11.62, 11.62, 11.62, 11.62, 11.62, 11.62, 11.62, 11.62, 11.62, 11.62, 11.62, 11.62, 12.07, 12.07, 12.07, 12.52, 12.52, 12.96, 12.96, 13.41, 13.41, 13.41, 13.86, 13.86, 14.3, 14.75, 14.75, 14.75, 14.75, 14.75, 14.75, 15.2, 15.65, 16.09, 16.99, 17.88, 18.78, 19.67, 21.01, 21.9, 22.35, 22.35, 21.01, 18.33, 16.09, 14.75, 13.86, 12.96, 12.52, 12.07, 11.18, 10.73, 11.18, 12.07, 12.52, 12.52, 12.07, 12.07, 12.07, 16.99, 16.99, 17.43, 16.99, 16.99, 16.99, 16.99, 16.54, 16.54, 16.09, 16.09, 15.65, 15.65, 15.65, 15.2, 15.2, 14.75, 14.75, 14.3, 14.3, 14.3, 13.86, 13.41, 13.41, 13.41, 12.96, 12.96, 12.96, 12.52, 12.52, 12.52, 12.07, 12.07, 12.07, 12.07, 12.07, 12.07, 12.07, 11.62, 11.62, 11.62, 11.62, 11.62, 11.62, 11.62, 11.62, 11.62, 11.62, 12.07, 12.07, 12.07, 12.07, 12.07, 12.52, 12.96, 12.96, 13.41, 13.41, 13.86, 13.86, 13.86, 14.3, 14.3, 14.75, 15.2, 15.2, 15.2, 15.2, 15.2, 15.2, 15.65, 16.09, 16.09, 16.99, 17.43, 18.33, 19.22, 20.56, 21.46, 21.9, 22.35, 21.9, 20.12, 17.43, 14.75, 12.96, 12.07, 12.07, 11.62, 11.62, 11.62, 11.62, 12.07, 12.52, 12.52, 12.07, 12.07, 12.07, 16.99, 16.99, 16.99, 16.99, 16.99, 16.54, 16.54, 16.09, 16.09, 16.09, 15.65, 15.65, 15.2, 15.2, 15.2, 14.75, 14.75, 14.3, 14.3, 14.3, 13.86, 13.41, 13.41, 13.41, 12.96, 12.96, 12.96, 12.96, 12.96, 12.52, 12.52, 12.52, 12.52, 12.07, 12.07, 12.07, 12.07, 12.07, 11.62, 11.62, 11.62, 11.62, 11.62, 11.62, 11.62, 12.07, 12.07, 12.07, 12.07, 12.07, 12.52, 12.52, 12.52, 12.96, 13.41, 13.41, 13.86, 13.86, 14.3, 14.3, 14.3, 14.75, 14.75, 15.2, 15.65, 15.65, 15.65, 15.65, 15.65, 15.2, 15.2, 15.65, 16.09, 16.54, 17.43, 18.33, 18.78, 19.67, 20.56, 21.46, 22.35, 22.35, 21.9, 19.22, 15.2, 12.96, 11.62, 12.07, 11.62, 12.07, 12.07, 12.07, 12.07, 12.52, 12.52, 12.07, 12.07, 12.07, 16.99, 16.54, 16.54, 16.54, 16.54, 16.54, 16.09, 16.09, 15.65, 15.65, 15.65, 15.2, 15.2, 15.2, 14.75, 14.75, 14.3, 14.3, 14.3, 13.86, 13.86, 13.41, 13.41, 12.96, 12.96, 12.96, 12.96, 12.96, 12.96, 12.96, 12.52, 12.52, 12.52, 12.52, 12.52, 12.07, 12.07, 12.07, 12.07, 11.62, 11.62, 11.62, 11.62, 11.62, 12.07, 12.07, 12.07, 12.07, 12.52, 12.52, 12.52, 12.96, 12.96, 13.41, 13.86, 13.86, 14.3, 14.3, 14.75, 14.75, 14.75, 15.2, 15.2, 15.2, 15.65, 16.09, 16.09, 16.09, 15.65, 15.65, 15.65, 15.65, 15.65, 16.09, 16.99, 17.88, 18.33, 19.22, 19.67, 21.01, 21.9, 22.35, 22.8, 21.01, 16.54, 11.18, 11.18, 12.07, 12.07, 11.62, 12.07, 12.07, 12.07, 12.07, 12.52, 12.52, 12.52, 12.52, 16.54, 16.54, 16.54, 16.54, 16.09, 16.09, 16.09, 15.65, 15.65, 15.65, 15.2, 15.2, 14.75, 14.75, 14.75, 14.3, 14.3, 14.3, 13.86, 13.86, 13.86, 13.41, 13.41, 12.96, 12.96, 12.96, 12.96, 12.96, 12.96, 12.96, 12.96, 12.52, 12.52, 12.52, 12.52, 12.07, 12.07, 12.07, 12.07, 11.62, 11.62, 11.62, 12.07, 12.07, 12.07, 12.07, 12.52, 12.52, 12.52, 12.96, 12.96, 12.96, 13.41, 13.86, 14.3, 14.3, 14.75, 14.75, 15.2, 15.2, 15.2, 15.2, 15.65, 15.65, 15.65, 16.09, 16.09, 16.09, 16.09, 16.09, 16.09, 15.65, 16.09, 16.09, 16.54, 16.99, 17.88, 18.78, 19.22, 20.12, 21.46, 22.35, 22.8, 21.9, 13.86, 12.07, 11.18, 12.07, 12.52, 12.07, 11.62, 12.52, 12.07, 12.07, 12.52, 12.52, 12.52, 12.52, 16.54, 16.54, 16.54, 16.09, 16.09, 15.65, 15.65, 15.65, 15.2, 15.2, 15.2, 14.75, 14.75, 14.75, 14.3, 14.3, 14.3, 13.86, 13.86, 13.86, 13.86, 13.41, 12.96, 12.96, 12.96, 12.96, 12.96, 12.96, 12.96, 12.96, 12.96, 12.52, 12.52, 12.52, 12.52, 12.52, 12.07, 12.07, 12.07, 12.07, 12.07, 12.07, 12.07, 12.52, 12.52, 12.52, 12.52, 12.96, 12.96, 12.96, 13.41, 13.41, 13.86, 14.3, 14.75, 14.75, 15.2, 15.2, 15.2, 15.2, 15.65, 15.65, 15.65, 15.65, 16.09, 16.09, 16.09, 16.54, 16.54, 16.54, 16.54, 16.54, 16.54, 16.54, 16.54, 16.99, 17.88, 18.33, 18.78, 19.67, 20.56, 21.9, 23.25, 18.78, 14.75, 12.07, 11.62, 12.07, 12.52, 12.52, 12.07, 12.52, 12.96, 12.52, 12.52, 12.96, 12.96, 12.96, 16.09, 16.09, 16.09, 16.09, 15.65, 15.65, 15.2, 15.2, 15.2, 14.75, 14.75, 14.75, 14.3, 14.3, 14.3, 14.3, 13.86, 13.86, 13.86, 13.86, 13.41, 13.41, 12.96, 12.96, 12.96, 12.96, 12.96, 12.96, 12.96, 12.96, 12.96, 12.52, 12.52, 12.52, 12.52, 12.52, 12.52, 12.07, 12.07, 12.07, 12.52, 12.52, 12.52, 12.52, 12.96, 12.96, 12.96, 12.96, 13.41, 13.41, 13.86, 13.86, 14.3, 14.75, 15.2, 15.2, 15.2, 15.65, 15.65, 15.65, 15.65, 15.65, 16.09, 16.09, 16.09, 16.09, 16.54, 16.54, 16.54, 16.54, 16.54, 16.54, 16.54, 16.99, 16.99, 16.99, 17.43, 17.88, 18.78, 19.67, 20.56, 21.46, 23.69, 20.12, 15.2, 12.07, 11.18, 11.62, 12.52, 12.52, 12.52, 12.96, 12.96, 12.96, 12.96, 13.41, 13.41, 13.41, 16.09, 16.09, 15.65, 15.65, 15.65, 15.2, 15.2, 15.2, 14.75, 14.75, 14.3, 14.3, 14.3, 13.86, 13.86, 13.86, 13.86, 13.86, 13.86, 13.41, 13.41, 13.41, 13.41, 13.41, 13.41, 12.96, 12.96, 12.96, 12.96, 12.96, 12.96, 12.52, 12.52, 12.52, 12.52, 12.52, 12.52, 12.52, 12.52, 12.52, 12.52, 12.96, 12.96, 12.96, 12.96, 13.41, 13.41, 13.41, 13.86, 13.86, 14.3, 14.3, 14.75, 15.2, 15.2, 15.65, 15.65, 15.65, 15.65, 16.09, 16.09, 16.09, 16.09, 16.09, 16.09, 16.54, 16.54, 16.54, 16.54, 16.54, 16.54, 16.99, 16.99, 16.99, 16.99, 16.54, 16.99, 17.43, 18.33, 19.67, 20.12, 21.01, 24.14, 21.9, 16.09, 12.52, 11.18, 11.62, 12.96, 12.96, 12.96, 13.41, 13.41, 13.41, 13.41, 13.41, 13.41, 13.41, 15.65, 15.65, 15.65, 15.2, 15.2, 15.2, 14.75, 14.75, 14.75, 14.3, 14.3, 14.3, 13.86, 13.86, 13.86, 13.86, 13.86, 13.86, 13.41, 13.41, 13.41, 13.41, 13.41, 13.41, 13.41, 12.96, 12.96, 12.96, 12.96, 12.96, 12.96, 12.96, 12.96, 12.52, 12.52, 12.52, 12.52, 12.52, 12.96, 12.96, 12.96, 12.96, 13.41, 13.41, 13.41, 13.86, 13.86, 13.86, 14.3, 14.3, 14.75, 14.75, 15.2, 15.65, 15.65, 15.65, 16.09, 16.09, 16.09, 16.09, 16.09, 16.09, 16.54, 16.54, 16.54, 16.54, 16.54, 16.99, 16.99, 16.54, 16.99, 16.99, 16.99, 16.99, 16.54, 16.54, 16.99, 16.99, 17.88, 19.22, 20.12, 22.35, 24.14, 24.14, 18.78, 13.86, 11.62, 12.07, 12.96, 13.86, 13.41, 13.41, 13.86, 13.86, 13.86, 13.86, 13.86, 13.86, 15.2, 15.2, 15.2, 15.2, 14.75, 14.75, 14.75, 14.75, 14.3, 14.3, 13.86, 13.86, 13.86, 13.86, 13.86, 13.41, 13.41, 13.41, 13.41, 13.41, 13.41, 13.41, 13.41, 13.41, 13.41, 12.96, 12.96, 12.96, 12.96, 12.96, 12.96, 12.96, 12.96, 12.96, 12.96, 12.96, 12.96, 12.96, 12.96, 12.96, 13.41, 13.41, 13.41, 13.86, 13.86, 13.86, 14.3, 14.3, 14.75, 14.75, 15.2, 15.2, 15.65, 15.65, 16.09, 16.09, 16.09, 16.09, 16.54, 16.54, 16.54, 16.54, 16.54, 16.54, 16.54, 16.99, 16.99, 16.99, 16.99, 16.99, 16.99, 16.99, 16.99, 16.99, 16.54, 16.54, 16.99, 16.99, 17.43, 18.33, 20.12, 21.46, 23.25, 24.59, 21.46, 16.09, 13.41, 12.96, 13.41, 14.3, 14.3, 14.3, 13.86, 14.3, 13.86, 13.86, 13.86, 13.86, 15.2, 15.2, 15.2, 14.75, 14.75, 14.75, 14.3, 14.3, 14.3, 13.86, 13.86, 13.86, 13.86, 13.41, 13.41, 13.41, 13.41, 13.41, 13.41, 13.41, 13.41, 13.41, 13.41, 13.41, 13.41, 13.41, 13.41, 12.96, 12.96, 12.96, 12.96, 12.96, 12.96, 12.96, 12.96, 13.41, 13.41, 13.41, 13.41, 13.41, 13.86, 13.86, 13.86, 14.3, 14.3, 14.3, 14.75, 14.75, 15.2, 15.2, 15.2, 15.65, 16.09, 16.09, 16.09, 16.54, 16.54, 16.54, 16.54, 16.54, 16.54, 16.99, 16.99, 16.99, 16.99, 16.99, 16.99, 16.99, 16.99, 16.99, 16.99, 16.99, 16.99, 16.99, 16.99, 16.54, 16.99, 16.99, 16.99, 18.78, 20.12, 21.01, 22.8, 24.14, 22.8, 18.78, 15.65, 14.3, 14.3, 14.75, 14.75, 14.75, 14.3, 14.75, 14.3, 14.3, 14.3, 14.3, 14.75, 14.75, 14.75, 14.75, 14.3, 14.3, 14.3, 14.3, 13.86, 13.86, 13.86, 13.86, 13.41, 13.41, 13.41, 13.41, 13.41, 13.41, 13.41, 13.41, 13.41, 13.41, 13.41, 13.41, 13.41, 13.41, 13.41, 13.41, 13.41, 13.41, 13.41, 13.41, 13.41, 13.41, 13.41, 13.41, 13.41, 13.86, 13.86, 13.86, 14.3, 14.3, 14.3, 14.75, 14.75, 15.2, 15.2, 15.2, 15.65, 15.65, 15.65, 16.09, 16.54, 16.54, 16.54, 16.54, 16.54, 16.99, 16.99, 16.99, 16.99, 16.99, 16.99, 16.99, 16.99, 16.99, 16.99, 16.99, 16.99, 16.99, 16.99, 16.99, 16.99, 16.99, 16.99, 16.99, 16.99, 17.43, 17.88, 18.33, 19.67, 21.01, 22.35, 23.69, 23.25, 20.12, 17.43, 15.65, 15.2, 15.2, 15.2, 15.2, 14.75, 14.75, 14.75, 14.3, 14.3, 14.3, 14.75, 14.75, 14.75, 14.75, 14.3, 14.3, 14.3, 13.86, 13.86, 13.86, 13.86, 13.86, 13.41, 13.41, 13.41, 13.41, 13.41, 13.41, 13.41, 13.41, 13.41, 13.41, 13.41, 13.41, 13.41, 13.41, 13.41, 13.41, 13.41, 13.41, 13.41, 13.41, 13.86, 13.86, 13.86, 13.86, 13.86, 14.3, 14.3, 14.3, 14.75, 14.75, 15.2, 15.2, 15.2, 15.65, 15.65, 15.65, 16.09, 16.09, 16.09, 16.54, 16.54, 16.99, 16.99, 16.99, 16.99, 16.99, 16.99, 16.99, 16.99, 17.43, 17.43, 17.43, 17.43, 17.43, 17.43, 17.43, 17.43, 17.43, 17.43, 16.99, 16.99, 16.99, 16.99, 16.99, 17.43, 17.43, 17.88, 18.33, 19.22, 20.56, 21.9, 23.25, 23.25, 21.01, 18.78, 16.99, 16.09, 15.65, 15.65, 15.2, 14.75, 14.75, 14.3, 13.86, 13.86, 13.86, 14.75, 14.75, 14.75, 14.3, 14.3, 14.3, 14.3, 13.86, 13.86, 13.86, 13.86, 13.86, 13.86, 13.86, 13.86, 13.86, 13.86, 13.86, 13.41, 13.41, 13.41, 13.41, 13.41, 13.86, 13.86, 13.86, 13.86, 13.86, 13.86, 13.86, 13.86, 13.86, 13.86, 14.3, 14.3, 14.3, 14.3, 14.75, 14.75, 15.2, 15.2, 15.2, 15.65, 15.65, 16.09, 16.09, 16.09, 16.09, 16.54, 16.54, 16.54, 16.99, 16.99, 16.99, 16.99, 16.99, 17.43, 17.43, 17.43, 17.43, 17.43, 17.43, 17.43, 17.43, 17.43, 17.43, 17.43, 17.43, 17.43, 17.43, 17.43, 17.43, 16.99, 16.99, 16.99, 16.99, 17.43, 17.88, 17.88, 17.88, 18.78, 20.12, 21.46, 22.35, 22.8, 21.9, 20.12, 18.33, 16.99, 16.54, 16.09, 15.2, 14.75, 14.3, 14.3, 13.86, 13.86, 13.86, 14.75, 14.75, 14.75, 14.3, 14.3, 14.3, 14.3, 13.86, 13.86, 13.86, 13.86, 13.86, 13.86, 13.86, 13.86, 13.86, 13.86, 13.86, 13.41, 13.41, 13.41, 13.41, 13.41, 13.86, 13.86, 13.86, 13.86, 13.86, 13.86, 13.86, 13.86, 13.86, 13.86, 14.3, 14.3, 14.3, 14.3, 14.75, 14.75, 15.2, 15.2, 15.2, 15.65, 15.65, 16.09, 16.09, 16.09, 16.09, 16.54, 16.54, 16.54, 16.99, 16.99, 16.99, 16.99, 16.99, 17.43, 17.43, 17.43, 17.43, 17.43, 17.43, 17.43, 17.43, 17.43, 17.43, 17.43, 17.43, 17.43, 17.43, 17.43, 17.43, 16.99, 16.99, 16.99, 16.99, 17.43, 17.88, 17.88, 17.88, 18.78, 19.67, 21.01, 21.9, 22.35, 21.9, 20.56, 19.22, 17.88, 16.99, 16.54, 15.65, 14.75, 14.3, 13.86, 13.86, 13.86, 13.86]}, {"header": {"parameterCategory": 1, "parameterNumber": 3, "dx": 0.06612293990616946, "dy": 0.0552356325346848, "nx": 98, "ny": 59, "la1": 35.046912555036876, "la2": 31.78801023549047, "lo1": -121.43107172385933, "lo2": -114.95102361305473, "refTime": "2026041222"}, "data": [0.45, 0.89, 0.89, 1.34, 1.34, 1.79, 2.24, 2.24, 2.68, 2.68, 3.13, 3.58, 4.02, 4.02, 4.47, 4.92, 5.36, 5.81, 6.26, 6.71, 7.15, 7.15, 7.6, 7.6, 8.05, 8.49, 8.49, 8.49, 8.94, 8.94, 8.49, 8.49, 8.05, 8.05, 8.05, 7.6, 7.15, 6.26, 5.81, 5.81, 4.47, 3.58, 3.13, 3.13, 4.02, 4.02, 3.58, 3.58, 4.47, 5.81, 6.26, 6.71, 6.71, 6.71, 6.71, 6.71, 6.71, 6.71, 7.15, 7.15, 7.15, 7.6, 8.49, 8.94, 8.94, 8.49, 7.15, 6.26, 5.81, 5.36, 5.36, 5.36, 5.36, 5.81, 6.26, 7.15, 7.6, 8.05, 8.49, 8.94, 8.49, 6.26, 4.02, 2.68, 3.13, 4.47, 5.36, 4.92, 4.47, 4.47, 4.47, 5.36, 5.81, 6.26, 6.26, 6.71, 6.71, 7.6, 0.45, 0.89, 0.89, 1.34, 1.79, 1.79, 2.24, 2.24, 2.68, 3.13, 3.13, 3.58, 4.02, 4.02, 4.47, 4.92, 5.36, 5.81, 6.26, 6.71, 7.15, 7.6, 8.05, 8.05, 8.05, 8.05, 8.49, 8.49, 8.94, 8.94, 8.94, 8.49, 8.49, 8.05, 7.6, 6.71, 6.26, 5.36, 4.47, 4.02, 3.58, 3.13, 3.13, 3.13, 3.13, 3.13, 4.02, 5.36, 6.26, 7.15, 7.15, 7.15, 7.15, 6.71, 6.71, 7.15, 7.15, 7.15, 7.15, 7.6, 7.6, 8.05, 8.94, 8.94, 8.49, 7.15, 5.81, 5.36, 5.36, 5.36, 5.81, 5.81, 5.81, 6.26, 6.71, 7.15, 7.6, 8.05, 8.49, 8.94, 8.49, 6.26, 4.02, 2.68, 3.13, 4.47, 5.36, 4.92, 4.47, 4.47, 4.47, 5.36, 5.81, 6.26, 6.26, 6.71, 6.71, 7.6, 0.45, 0.89, 1.34, 1.34, 1.79, 1.79, 2.24, 2.24, 2.68, 3.13, 3.13, 3.58, 4.02, 4.02, 4.47, 4.92, 5.36, 5.81, 6.26, 6.71, 7.15, 7.6, 8.05, 8.49, 8.49, 8.49, 8.49, 8.49, 8.49, 8.94, 8.94, 8.94, 8.94, 8.49, 7.6, 6.26, 5.36, 4.02, 3.13, 3.13, 2.68, 2.68, 2.68, 2.68, 3.58, 4.92, 5.81, 6.71, 7.15, 7.15, 7.15, 7.15, 7.15, 7.15, 7.15, 7.15, 7.6, 7.6, 7.6, 8.05, 8.05, 8.49, 8.94, 8.49, 7.15, 5.81, 5.36, 5.36, 5.81, 5.81, 6.26, 5.81, 5.81, 5.81, 6.26, 7.15, 7.6, 8.05, 8.49, 8.49, 7.15, 4.92, 2.68, 2.24, 3.58, 4.47, 4.47, 4.02, 3.58, 3.58, 4.02, 4.47, 5.36, 5.81, 6.26, 6.71, 7.15, 7.6, 0.89, 0.89, 1.34, 1.34, 1.79, 1.79, 2.24, 2.68, 2.68, 3.13, 3.13, 3.58, 4.02, 4.02, 4.47, 4.92, 5.36, 5.81, 6.26, 6.26, 7.15, 7.6, 8.05, 8.05, 8.49, 8.94, 8.49, 8.49, 8.49, 8.49, 8.94, 9.39, 9.83, 9.83, 8.94, 7.6, 6.26, 4.47, 3.58, 3.13, 3.13, 3.58, 4.02, 4.47, 5.36, 6.26, 6.71, 6.71, 7.15, 7.15, 7.15, 7.15, 7.15, 7.15, 7.15, 7.6, 7.6, 8.05, 8.05, 8.05, 8.49, 8.94, 8.49, 7.6, 6.26, 5.36, 5.36, 5.81, 6.26, 6.26, 5.81, 5.36, 5.36, 4.92, 5.36, 6.71, 7.6, 8.05, 8.49, 7.6, 5.81, 3.58, 2.24, 2.24, 3.58, 3.58, 3.13, 2.68, 2.68, 3.13, 3.58, 4.02, 4.92, 5.81, 6.71, 6.71, 7.15, 7.6, 0.89, 0.89, 1.34, 1.34, 1.79, 2.24, 2.24, 2.68, 2.68, 3.13, 3.58, 3.58, 4.02, 4.02, 4.47, 4.92, 5.36, 5.81, 5.81, 6.26, 6.71, 7.15, 7.6, 8.05, 8.49, 8.94, 8.94, 8.94, 8.49, 8.49, 8.94, 8.94, 9.39, 9.83, 9.39, 8.49, 7.6, 6.71, 5.36, 4.92, 4.92, 5.36, 5.81, 5.81, 5.81, 6.26, 6.26, 6.71, 6.71, 6.71, 6.71, 6.71, 7.15, 7.15, 7.6, 7.6, 7.6, 8.05, 8.05, 8.49, 8.94, 8.94, 8.05, 6.71, 5.81, 5.81, 6.26, 6.71, 7.15, 6.71, 6.26, 5.36, 4.92, 4.47, 4.92, 6.26, 7.15, 7.15, 7.15, 6.71, 4.47, 2.68, 1.79, 2.24, 2.68, 1.79, 1.79, 2.24, 2.68, 2.68, 3.13, 4.02, 5.36, 6.71, 7.15, 7.15, 7.15, 7.15, 0.89, 1.34, 1.34, 1.79, 1.79, 2.24, 2.24, 2.68, 3.13, 3.13, 3.58, 3.58, 4.02, 4.47, 4.47, 4.92, 5.36, 5.36, 5.81, 6.26, 6.71, 7.15, 7.15, 7.6, 8.05, 8.49, 8.94, 9.39, 9.39, 8.94, 8.94, 8.94, 8.94, 8.94, 8.49, 8.49, 8.05, 7.6, 6.71, 6.26, 6.71, 6.71, 7.15, 7.15, 6.71, 6.71, 6.71, 6.71, 6.71, 6.71, 6.71, 7.15, 7.15, 7.6, 8.05, 8.05, 8.05, 8.05, 8.49, 8.49, 8.94, 8.05, 7.15, 6.26, 6.26, 6.71, 6.71, 7.15, 7.15, 7.15, 6.71, 6.26, 5.81, 5.81, 5.81, 6.71, 6.71, 6.71, 5.81, 5.36, 3.13, 1.34, 0.89, 1.34, 1.34, 0.89, 1.34, 1.79, 1.79, 2.68, 4.02, 5.36, 6.26, 6.71, 7.15, 6.71, 6.71, 6.71, 0.89, 1.34, 1.79, 1.79, 2.24, 2.24, 2.68, 2.68, 3.13, 3.13, 3.58, 3.58, 4.02, 4.47, 4.47, 4.92, 5.36, 5.81, 5.81, 6.26, 6.26, 6.71, 7.15, 7.15, 7.6, 8.05, 8.49, 8.94, 9.39, 9.39, 8.94, 8.94, 8.94, 8.49, 8.05, 7.6, 7.6, 7.6, 7.6, 7.15, 7.6, 8.05, 8.05, 8.49, 8.49, 8.05, 7.6, 7.15, 7.15, 7.15, 7.6, 7.6, 8.05, 8.05, 8.05, 8.05, 8.05, 8.05, 8.49, 8.49, 8.05, 7.15, 6.26, 6.71, 7.15, 7.6, 7.6, 7.15, 7.15, 7.6, 7.15, 7.15, 7.15, 7.6, 7.6, 7.6, 7.15, 5.81, 4.02, 1.79, 1.34, 0.0, 0.0, 0.0, 0.0, 0.0, 0.0, 0.89, 1.79, 2.68, 4.47, 6.26, 6.71, 7.15, 7.15, 6.26, 6.26, 6.26, 1.34, 1.34, 1.79, 2.24, 2.24, 2.68, 2.68, 3.13, 3.13, 3.58, 3.58, 4.02, 4.02, 4.47, 4.92, 4.92, 5.36, 5.81, 5.81, 6.26, 6.26, 6.71, 6.71, 6.71, 7.15, 7.6, 8.05, 8.49, 8.94, 8.94, 9.39, 9.39, 8.94, 8.49, 7.6, 7.6, 7.15, 7.6, 8.49, 8.05, 8.05, 8.49, 8.49, 8.94, 9.39, 9.39, 9.39, 8.94, 8.49, 8.05, 8.05, 8.49, 8.49, 8.49, 8.49, 8.05, 8.05, 8.05, 8.05, 8.05, 7.15, 6.26, 6.26, 7.15, 7.6, 7.6, 7.15, 6.71, 7.15, 7.15, 7.15, 7.15, 7.6, 7.6, 8.05, 8.05, 6.71, 4.92, 2.68, 0.0, -0.89, -0.89, -0.89, -0.89, -0.89, -0.45, -0.45, 0.0, 1.79, 3.58, 4.92, 5.81, 6.71, 7.15, 6.26, 5.81, 5.36, 5.36, 1.34, 1.79, 2.24, 2.24, 2.68, 2.68, 3.13, 3.13, 3.58, 3.58, 4.02, 4.02, 4.47, 4.47, 4.92, 5.36, 5.36, 5.81, 5.81, 6.26, 6.26, 6.26, 6.26, 6.71, 7.15, 7.6, 8.05, 8.05, 8.49, 8.49, 8.94, 8.94, 8.49, 8.05, 7.6, 7.6, 7.15, 7.6, 8.49, 8.49, 8.49, 8.49, 8.49, 8.94, 9.39, 9.83, 9.83, 10.28, 9.83, 9.39, 8.94, 8.94, 8.49, 8.49, 8.05, 7.6, 7.15, 7.15, 7.15, 6.71, 6.26, 5.81, 6.26, 7.15, 7.6, 7.6, 7.15, 6.26, 6.26, 6.71, 6.71, 6.71, 7.15, 7.6, 7.6, 7.15, 5.36, 2.68, 0.89, -0.45, -2.24, -2.24, -2.24, -2.68, -2.24, -1.34, 0.0, 0.89, 2.24, 3.58, 4.47, 5.81, 6.26, 6.26, 5.36, 4.92, 4.92, 5.36, 1.79, 2.24, 2.24, 2.68, 2.68, 3.13, 3.13, 3.13, 3.58, 3.58, 4.02, 4.02, 4.47, 4.47, 4.92, 4.92, 5.36, 5.36, 5.81, 5.81, 5.81, 6.26, 6.26, 6.71, 6.71, 7.15, 7.6, 8.05, 7.6, 7.6, 8.05, 8.05, 7.6, 7.15, 7.15, 7.15, 7.6, 7.6, 8.05, 8.05, 8.49, 8.49, 8.49, 8.94, 9.39, 9.39, 9.83, 9.83, 9.83, 10.28, 9.83, 8.94, 8.49, 7.6, 7.15, 6.26, 5.36, 4.92, 5.36, 5.36, 4.92, 5.36, 6.26, 7.6, 7.6, 7.15, 6.26, 5.36, 4.92, 4.92, 5.36, 5.36, 5.81, 6.26, 6.26, 4.92, 2.24, 0.45, -0.89, -1.79, -2.68, -3.58, -3.58, -3.13, -2.68, -1.34, 0.0, 0.89, 1.79, 3.13, 4.47, 5.81, 5.81, 4.92, 4.92, 4.92, 4.92, 4.92, 1.79, 2.24, 2.24, 2.68, 3.13, 3.13, 3.13, 3.58, 3.58, 4.02, 4.02, 4.47, 4.47, 4.47, 4.92, 4.92, 5.36, 5.36, 5.81, 5.81, 5.81, 6.26, 6.26, 6.71, 6.71, 6.71, 7.15, 7.15, 7.6, 7.15, 7.6, 7.6, 7.15, 6.26, 6.26, 6.26, 7.15, 7.6, 7.6, 8.05, 8.05, 8.05, 8.49, 8.94, 8.94, 9.39, 9.39, 9.39, 9.83, 10.28, 10.28, 9.83, 9.39, 8.05, 7.15, 6.26, 4.02, 2.68, 3.58, 4.92, 5.36, 5.81, 7.6, 8.49, 8.49, 7.15, 4.92, 3.13, 2.24, 1.79, 1.79, 1.79, 2.68, 4.02, 3.13, 1.34, -0.45, -2.24, -2.68, -3.13, -3.13, -2.24, -1.79, -2.24, -1.34, 0.0, 0.45, 1.34, 1.79, 2.68, 4.47, 5.36, 4.47, 4.02, 4.02, 4.47, 4.92, 5.36, 2.24, 2.24, 2.68, 2.68, 3.13, 3.13, 3.58, 3.58, 4.02, 4.02, 4.02, 4.47, 4.47, 4.47, 4.92, 4.92, 4.92, 5.36, 5.36, 5.81, 5.81, 5.81, 6.26, 6.26, 6.71, 6.71, 7.15, 7.15, 7.6, 7.6, 7.6, 7.6, 6.71, 5.81, 5.81, 6.26, 6.71, 7.15, 7.6, 7.6, 8.05, 8.05, 8.49, 8.49, 8.94, 9.39, 9.39, 9.39, 9.83, 10.28, 10.73, 11.18, 11.62, 11.62, 11.62, 11.18, 8.49, 4.02, 4.02, 6.26, 8.05, 8.49, 8.94, 9.83, 10.73, 9.39, 6.71, 3.13, 0.45, -0.45, -1.34, -1.79, -0.45, 0.89, 0.45, -0.45, -1.79, -2.68, -2.68, -2.24, -1.34, -0.45, 0.0, -0.45, 0.0, 0.45, 0.89, 1.34, 1.79, 3.13, 4.02, 4.47, 3.58, 3.58, 3.58, 4.02, 4.47, 5.36, 2.24, 2.68, 2.68, 3.13, 3.13, 3.58, 3.58, 3.58, 4.02, 4.02, 4.47, 4.47, 4.47, 4.47, 4.92, 4.92, 4.92, 4.92, 5.36, 5.36, 5.81, 5.81, 6.26, 6.26, 6.26, 6.71, 6.71, 7.15, 7.15, 7.6, 7.6, 7.15, 5.81, 4.92, 4.92, 5.36, 6.26, 6.71, 7.15, 7.6, 8.05, 8.49, 8.49, 8.49, 8.49, 8.94, 8.94, 9.39, 9.83, 10.28, 10.73, 11.18, 11.62, 12.52, 13.41, 13.86, 13.86, 10.73, 7.6, 8.49, 11.18, 11.62, 11.18, 12.52, 13.41, 13.41, 12.96, 9.83, 4.92, 0.45, -2.24, -4.02, -4.02, -1.34, 0.0, -0.45, -1.34, -1.34, -0.45, 0.0, 0.45, 0.45, 0.89, 1.34, 0.45, 0.45, 0.89, 1.34, 2.24, 3.13, 3.58, 3.58, 2.68, 2.68, 3.13, 3.58, 4.47, 4.92, 2.24, 2.68, 2.68, 3.13, 3.13, 3.58, 3.58, 4.02, 4.02, 4.02, 4.47, 4.47, 4.47, 4.47, 4.92, 4.92, 4.92, 4.92, 5.36, 5.36, 5.36, 5.81, 5.81, 6.26, 6.26, 6.71, 6.71, 7.15, 7.15, 7.6, 7.15, 6.26, 4.92, 4.47, 4.47, 5.36, 5.81, 6.71, 7.15, 7.6, 8.05, 8.05, 8.05, 8.05, 8.05, 8.05, 8.49, 8.49, 8.94, 9.39, 9.83, 9.83, 9.83, 10.28, 10.28, 11.18, 12.07, 12.52, 11.18, 10.28, 12.52, 13.86, 14.75, 15.2, 14.75, 15.2, 15.65, 15.65, 14.3, 9.83, 3.58, -1.34, -5.36, -4.02, -0.89, -0.89, -0.45, 0.0, 0.45, 0.89, 1.34, 1.34, 1.34, 1.79, 1.79, 1.79, 1.79, 2.68, 3.13, 3.58, 3.13, 2.68, 2.24, 2.24, 2.68, 3.13, 3.58, 4.02, 2.24, 2.68, 2.68, 3.13, 3.13, 3.58, 3.58, 4.02, 4.02, 4.02, 4.47, 4.47, 4.47, 4.47, 4.92, 4.92, 4.92, 4.92, 4.92, 5.36, 5.36, 5.36, 5.81, 5.81, 6.26, 6.26, 6.71, 7.15, 7.15, 7.15, 6.71, 5.36, 4.47, 4.02, 4.47, 5.36, 5.81, 6.26, 7.15, 7.15, 7.6, 7.6, 7.6, 7.6, 7.6, 7.6, 7.6, 7.6, 8.05, 8.05, 8.05, 8.49, 8.49, 8.49, 8.94, 9.39, 9.39, 9.39, 10.28, 11.18, 12.52, 13.86, 13.86, 12.96, 12.96, 13.41, 13.41, 13.41, 12.96, 11.62, 8.94, 3.58, -2.68, -3.13, -0.89, -0.89, -0.89, 0.0, 0.45, 0.89, 1.34, 1.34, 1.34, 2.24, 2.68, 3.13, 4.02, 4.47, 4.47, 3.58, 2.68, 2.24, 1.79, 2.24, 2.68, 2.68, 3.13, 3.13, 2.68, 2.68, 3.13, 3.13, 3.13, 3.58, 3.58, 4.02, 4.02, 4.02, 4.02, 4.47, 4.47, 4.47, 4.47, 4.92, 4.92, 4.92, 4.92, 5.36, 5.36, 5.36, 5.36, 5.81, 5.81, 6.26, 6.71, 6.71, 7.15, 6.71, 5.81, 4.47, 4.02, 4.02, 4.47, 4.92, 5.81, 6.26, 6.71, 6.71, 6.71, 6.71, 6.71, 6.71, 6.71, 6.71, 6.71, 6.71, 7.15, 7.15, 7.15, 7.15, 7.6, 7.6, 7.6, 7.6, 7.15, 6.71, 8.49, 10.28, 11.18, 12.52, 11.62, 11.18, 10.73, 10.28, 9.83, 10.73, 11.18, 10.73, 9.39, 5.81, 1.34, 0.45, 0.89, 0.45, 0.0, 0.0, 0.0, 0.45, 0.45, 0.45, 0.45, 0.89, 1.79, 2.24, 4.02, 4.47, 4.02, 2.68, 2.24, 1.79, 1.79, 2.24, 1.79, 2.24, 2.68, 2.68, 2.68, 2.68, 3.13, 3.13, 3.58, 3.58, 3.58, 4.02, 4.02, 4.02, 4.02, 4.47, 4.47, 4.47, 4.47, 4.92, 4.92, 4.92, 4.92, 4.92, 5.36, 5.36, 5.36, 5.81, 5.81, 6.26, 6.26, 6.71, 6.71, 6.26, 4.92, 4.02, 3.58, 4.02, 4.47, 4.92, 5.81, 6.26, 6.26, 6.26, 6.26, 6.26, 6.26, 6.26, 6.71, 6.71, 6.71, 6.71, 6.26, 6.26, 6.26, 6.71, 6.71, 6.71, 6.26, 6.26, 6.26, 6.71, 7.6, 8.49, 9.39, 10.28, 10.28, 10.28, 9.83, 8.49, 7.6, 7.6, 9.39, 9.83, 7.15, 4.47, 4.02, 4.47, 4.47, 4.47, 3.58, 2.24, 1.34, 0.45, 0.0, -0.45, -0.45, 0.0, 0.0, 0.45, 2.68, 2.24, 1.79, 1.34, 1.79, 1.79, 1.34, 1.34, 1.79, 1.79, 3.13, 3.13, 2.68, 2.68, 3.13, 3.13, 3.58, 3.58, 3.58, 4.02, 4.02, 4.02, 4.02, 4.47, 4.47, 4.47, 4.47, 4.92, 4.92, 4.92, 4.92, 4.92, 4.92, 5.36, 5.36, 5.36, 5.81, 5.81, 6.26, 6.26, 5.81, 5.36, 4.47, 4.02, 3.58, 4.02, 4.47, 4.92, 5.36, 5.81, 6.26, 5.81, 5.81, 5.81, 6.26, 6.26, 6.26, 6.71, 6.26, 6.26, 5.81, 5.81, 5.81, 5.81, 5.81, 5.81, 5.81, 5.36, 5.36, 5.81, 6.71, 7.15, 7.15, 8.05, 8.49, 8.94, 8.49, 7.6, 6.26, 4.92, 5.81, 6.26, 4.47, 4.92, 5.36, 5.36, 5.81, 6.71, 6.71, 5.81, 4.47, 2.68, 1.34, 0.0, -0.45, -0.45, -0.45, 0.0, 0.0, 0.89, 0.89, 1.34, 1.79, 1.34, 1.34, 1.34, 1.79, 2.68, 3.58, 3.58, 2.68, 2.68, 3.13, 3.13, 3.58, 3.58, 3.58, 3.58, 4.02, 4.02, 4.02, 4.02, 4.47, 4.47, 4.47, 4.47, 4.92, 4.92, 4.92, 4.92, 4.92, 4.92, 5.36, 5.36, 5.81, 5.81, 5.81, 5.81, 5.36, 4.92, 4.02, 4.02, 4.02, 4.02, 4.47, 4.92, 5.36, 5.36, 5.81, 5.81, 5.81, 5.81, 5.81, 5.81, 6.26, 6.26, 6.26, 6.26, 5.81, 5.81, 5.81, 5.81, 5.36, 5.36, 5.36, 4.92, 5.36, 5.36, 5.81, 5.81, 5.81, 6.26, 6.71, 7.15, 7.15, 6.71, 5.36, 4.02, 3.58, 3.13, 4.02, 4.92, 4.92, 5.36, 6.26, 7.15, 7.15, 6.71, 5.81, 4.92, 2.24, 0.89, 0.0, 0.0, 0.0, 0.0, 0.0, 0.0, 0.89, 1.34, 1.79, 1.34, 1.34, 1.34, 2.24, 3.58, 4.47, 4.47, 2.68, 2.68, 3.13, 3.13, 3.58, 3.58, 3.58, 3.58, 4.02, 4.02, 4.02, 4.02, 4.02, 4.47, 4.47, 4.47, 4.47, 4.47, 4.92, 4.92, 4.92, 4.92, 4.92, 5.36, 5.36, 5.81, 5.81, 5.36, 4.92, 4.47, 4.02, 4.02, 4.02, 4.02, 4.47, 4.47, 4.92, 5.36, 5.36, 5.36, 5.36, 5.36, 5.36, 5.81, 5.81, 5.81, 5.81, 5.81, 5.81, 5.36, 5.36, 5.36, 4.92, 4.92, 4.92, 4.92, 4.92, 4.92, 4.92, 4.92, 4.92, 5.36, 5.36, 6.26, 6.26, 6.26, 5.81, 4.92, 4.02, 4.02, 4.02, 4.47, 4.47, 4.92, 6.26, 6.26, 5.81, 4.92, 4.92, 4.47, 3.58, 2.68, 1.79, 0.89, 0.89, 0.45, 0.45, 0.0, 0.45, 0.89, 1.34, 1.34, 1.79, 2.24, 3.13, 4.47, 4.92, 4.92, 2.68, 2.68, 3.13, 3.13, 3.58, 3.58, 3.58, 3.58, 4.02, 4.02, 4.02, 4.02, 4.02, 4.02, 4.02, 4.47, 4.47, 4.47, 4.47, 4.92, 4.92, 4.92, 4.92, 5.36, 5.36, 5.36, 5.36, 5.36, 4.92, 4.47, 4.02, 4.02, 4.02, 4.02, 4.02, 4.47, 4.92, 4.92, 4.92, 4.92, 4.92, 4.92, 5.36, 5.36, 5.36, 5.36, 5.36, 5.36, 5.36, 5.36, 4.92, 4.92, 4.92, 4.92, 4.92, 4.92, 4.92, 4.92, 4.47, 4.47, 4.47, 4.92, 4.92, 5.36, 6.26, 6.26, 5.81, 5.36, 5.36, 4.92, 4.47, 4.02, 4.02, 4.47, 4.92, 4.47, 3.13, 3.58, 3.58, 4.02, 4.47, 4.02, 3.58, 3.13, 2.68, 2.24, 1.79, 1.34, 0.45, 0.0, 0.45, 1.34, 2.24, 3.13, 4.02, 4.47, 4.92, 4.92, 2.68, 2.68, 3.13, 3.13, 3.58, 3.58, 3.58, 3.58, 3.58, 4.02, 4.02, 4.02, 4.02, 4.02, 4.02, 4.02, 4.02, 4.47, 4.47, 4.47, 4.47, 4.92, 4.92, 5.36, 5.36, 5.36, 5.36, 5.36, 4.92, 4.47, 4.02, 3.58, 3.58, 4.02, 4.02, 4.47, 4.47, 4.47, 4.47, 4.47, 4.47, 4.92, 4.92, 4.92, 4.92, 4.92, 4.92, 4.92, 4.92, 4.92, 4.47, 4.47, 4.47, 4.92, 4.92, 5.36, 4.92, 4.47, 4.02, 4.02, 4.02, 4.47, 4.92, 5.36, 5.81, 5.81, 5.81, 5.81, 6.26, 6.71, 7.15, 6.26, 4.47, 1.79, 0.89, 0.89, 1.34, 1.34, 1.79, 2.68, 4.02, 5.36, 5.81, 5.81, 5.36, 4.47, 3.58, 3.13, 2.24, 0.45, 0.45, 1.79, 2.68, 3.58, 4.02, 4.47, 4.92, 4.92, 2.68, 2.68, 2.68, 3.13, 3.58, 3.58, 3.58, 3.58, 3.58, 3.58, 4.02, 4.02, 4.02, 4.02, 4.02, 4.02, 4.02, 4.02, 4.02, 4.47, 4.47, 4.47, 4.92, 4.92, 5.36, 5.36, 5.36, 5.36, 4.92, 4.47, 4.02, 3.58, 3.58, 4.02, 4.02, 4.02, 4.47, 4.47, 4.47, 4.02, 4.47, 4.47, 4.47, 4.47, 4.47, 4.47, 4.47, 4.47, 4.47, 4.47, 4.47, 4.47, 4.47, 4.92, 4.92, 5.36, 4.92, 4.92, 4.02, 3.58, 3.58, 4.02, 4.92, 5.36, 5.81, 5.81, 5.81, 5.81, 6.26, 7.15, 7.6, 8.49, 0.89, -2.24, -1.34, 0.0, 0.89, 0.89, 1.34, 3.13, 4.47, 5.81, 6.71, 7.15, 6.71, 5.81, 4.47, 4.02, 4.02, 4.02, 2.24, 2.68, 3.13, 3.58, 3.58, 4.02, 4.47, 4.47, 2.68, 2.68, 2.68, 3.13, 3.58, 3.58, 3.58, 3.58, 3.58, 3.58, 3.58, 3.58, 3.58, 3.58, 4.02, 4.02, 4.02, 4.02, 4.02, 4.02, 4.47, 4.47, 4.47, 4.92, 5.36, 5.36, 5.36, 4.92, 4.47, 4.02, 4.02, 3.58, 4.02, 4.02, 4.02, 4.02, 4.02, 4.02, 4.02, 4.02, 4.02, 4.02, 4.02, 4.02, 4.02, 4.02, 4.02, 4.02, 4.02, 4.47, 4.47, 4.47, 4.47, 4.92, 4.92, 4.92, 4.92, 4.92, 4.92, 4.02, 3.58, 3.58, 4.47, 4.92, 5.36, 5.81, 6.26, 6.26, 6.71, 6.71, 6.71, 6.26, 3.13, -2.68, -3.58, -1.34, 0.45, 1.34, 2.68, 4.02, 4.47, 5.36, 6.26, 6.26, 5.36, 4.92, 4.47, 4.92, 5.36, 5.36, 3.58, 3.58, 3.13, 3.58, 4.02, 4.47, 4.92, 4.92, 2.68, 2.68, 2.68, 3.13, 3.13, 3.58, 3.58, 3.58, 3.58, 3.58, 3.58, 3.58, 3.58, 3.58, 3.58, 4.02, 4.02, 4.02, 4.02, 4.02, 4.02, 4.02, 4.47, 4.92, 4.92, 5.36, 5.36, 4.92, 4.47, 4.02, 4.02, 4.02, 4.02, 4.02, 4.02, 4.02, 4.02, 4.02, 4.02, 3.58, 3.58, 3.58, 3.58, 3.58, 3.58, 3.58, 3.58, 4.02, 4.02, 4.02, 4.47, 4.47, 4.47, 4.92, 4.47, 4.47, 4.47, 4.92, 4.92, 4.92, 4.47, 4.02, 4.47, 4.92, 5.36, 5.81, 6.26, 7.15, 7.15, 5.81, 4.92, 4.47, 4.47, 0.45, -3.58, -4.02, -1.34, 0.89, 2.68, 4.02, 4.02, 4.47, 4.47, 4.02, 4.02, 4.47, 5.36, 5.81, 5.81, 5.81, 5.36, 4.02, 3.58, 3.58, 4.02, 4.47, 4.92, 4.92, 2.68, 2.68, 2.68, 3.13, 3.13, 3.13, 3.58, 3.58, 3.58, 3.58, 3.58, 3.58, 3.58, 3.58, 3.58, 3.58, 3.58, 3.58, 4.02, 4.02, 4.02, 4.02, 4.47, 4.47, 4.92, 4.92, 4.92, 4.47, 4.02, 3.58, 3.58, 4.02, 4.02, 4.02, 4.02, 4.02, 4.02, 4.02, 3.58, 3.58, 3.58, 3.58, 3.58, 3.58, 3.58, 3.58, 3.58, 3.58, 4.02, 4.02, 4.47, 4.47, 4.47, 4.02, 4.02, 4.02, 4.47, 4.47, 4.47, 4.92, 4.92, 4.47, 4.47, 4.47, 4.92, 5.81, 6.26, 7.15, 6.71, 5.81, 4.47, 4.02, 4.47, 4.02, 0.89, -2.24, -3.13, -0.89, 1.34, 2.68, 3.13, 2.68, 2.24, 2.68, 3.58, 4.92, 5.81, 5.81, 5.81, 5.81, 5.36, 4.47, 3.58, 3.58, 4.02, 4.47, 5.36, 5.36, 2.68, 2.68, 2.68, 3.13, 3.13, 3.13, 3.13, 3.58, 3.58, 3.58, 3.58, 3.58, 3.58, 3.58, 3.58, 3.58, 3.58, 3.58, 3.58, 3.58, 4.02, 4.02, 4.02, 4.47, 4.47, 4.47, 4.02, 3.58, 3.58, 3.58, 3.58, 3.58, 3.58, 3.58, 3.58, 3.58, 3.58, 3.58, 3.58, 3.13, 3.13, 3.13, 3.13, 3.13, 3.13, 3.13, 3.58, 3.58, 3.58, 3.58, 4.02, 4.02, 3.58, 3.58, 3.58, 3.58, 4.02, 4.02, 4.47, 4.47, 4.92, 4.92, 4.92, 4.92, 4.92, 5.36, 6.26, 6.71, 6.71, 5.81, 4.47, 3.58, 4.02, 4.47, 4.47, 1.79, -0.89, -1.34, 0.0, 0.89, 1.79, 1.79, 1.79, 2.68, 3.58, 4.92, 5.81, 5.81, 5.36, 5.36, 5.36, 5.81, 4.92, 4.47, 4.92, 5.36, 5.81, 5.81, 2.68, 2.68, 2.68, 3.13, 3.13, 3.13, 3.13, 3.13, 3.13, 3.13, 3.13, 3.58, 3.58, 3.58, 3.58, 3.58, 3.58, 3.58, 3.58, 3.58, 3.58, 4.02, 4.02, 4.02, 4.47, 4.02, 3.58, 3.13, 3.13, 3.13, 3.13, 3.13, 3.13, 3.13, 3.13, 3.13, 3.13, 3.13, 3.13, 2.68, 2.68, 2.68, 2.68, 2.68, 2.68, 2.68, 3.13, 3.58, 3.58, 3.58, 3.13, 3.13, 3.13, 2.68, 3.13, 3.58, 3.58, 3.58, 4.02, 4.02, 4.47, 4.47, 4.92, 4.92, 4.92, 5.36, 5.81, 5.81, 5.81, 5.36, 4.47, 3.58, 3.13, 3.13, 3.58, 4.02, 3.13, 0.89, -0.45, 0.0, 0.45, 0.89, 1.79, 3.13, 4.02, 4.47, 4.92, 5.36, 5.36, 5.36, 5.81, 6.26, 5.81, 5.81, 5.81, 6.26, 6.71, 6.71, 2.68, 2.68, 2.68, 2.68, 3.13, 3.13, 3.13, 3.13, 3.13, 3.13, 3.13, 3.13, 3.13, 3.13, 3.13, 3.13, 3.58, 3.58, 3.58, 3.58, 3.58, 3.58, 4.02, 4.02, 4.02, 3.13, 3.13, 3.13, 3.13, 2.68, 3.13, 3.13, 3.13, 3.13, 3.13, 3.13, 3.13, 2.68, 2.68, 2.68, 2.68, 2.68, 2.68, 2.68, 2.68, 2.68, 2.68, 2.68, 2.68, 3.13, 2.68, 2.68, 2.68, 2.68, 2.68, 2.68, 3.13, 3.13, 3.13, 3.58, 3.58, 4.02, 4.47, 4.92, 4.92, 5.81, 5.36, 4.92, 4.47, 4.47, 4.47, 3.58, 2.68, 2.24, 1.79, 3.13, 4.92, 4.47, 1.79, 0.0, 0.0, 0.45, 1.34, 2.68, 3.13, 3.58, 4.02, 4.47, 4.92, 5.36, 5.81, 6.26, 7.15, 7.15, 7.15, 7.15, 7.15, 7.15, 2.68, 2.68, 2.68, 2.68, 2.68, 3.13, 3.13, 3.13, 3.13, 3.13, 3.13, 3.13, 3.13, 3.13, 3.13, 3.13, 3.13, 3.13, 3.13, 3.58, 3.58, 3.58, 3.13, 3.13, 3.13, 3.13, 3.13, 2.68, 2.68, 2.68, 2.68, 2.68, 3.13, 3.13, 3.13, 2.68, 2.68, 2.68, 2.68, 2.68, 2.24, 2.24, 2.24, 2.24, 2.68, 2.68, 2.24, 2.24, 2.24, 2.24, 2.24, 2.24, 2.24, 2.68, 2.68, 2.68, 2.68, 2.68, 2.68, 3.13, 3.13, 3.58, 4.02, 4.47, 4.92, 5.81, 6.26, 5.81, 4.47, 4.02, 3.58, 3.58, 3.13, 2.24, 1.79, 2.68, 4.02, 5.36, 4.47, 2.24, 0.89, 0.89, 1.34, 2.24, 2.68, 3.13, 3.58, 3.58, 4.47, 4.92, 5.81, 6.71, 7.15, 7.6, 8.05, 8.05, 7.6, 7.6, 2.68, 2.68, 2.68, 2.68, 2.68, 2.68, 2.68, 3.13, 3.13, 2.68, 2.68, 2.68, 2.68, 3.13, 3.13, 3.13, 3.13, 3.13, 3.13, 3.13, 3.13, 3.13, 3.13, 3.13, 2.68, 2.68, 2.68, 2.68, 2.68, 2.68, 2.68, 2.68, 2.68, 2.68, 2.68, 2.68, 2.68, 2.68, 2.68, 2.68, 2.68, 2.24, 2.24, 2.24, 2.24, 2.24, 2.24, 1.79, 1.79, 2.24, 2.24, 2.24, 2.68, 2.68, 3.13, 3.13, 2.68, 2.68, 2.68, 2.68, 2.68, 3.13, 3.13, 4.02, 4.47, 4.92, 5.81, 6.71, 6.26, 4.47, 3.58, 3.58, 3.58, 3.13, 1.34, 0.89, 2.68, 3.58, 4.47, 4.02, 3.13, 2.24, 2.24, 2.24, 2.68, 2.68, 3.13, 3.13, 4.02, 4.47, 5.36, 6.71, 7.6, 8.05, 8.05, 8.05, 8.05, 8.05, 2.24, 2.24, 2.68, 2.68, 2.68, 2.68, 2.68, 2.68, 2.68, 2.68, 2.68, 2.68, 2.68, 2.68, 2.68, 3.13, 3.13, 3.13, 3.13, 3.13, 3.13, 2.68, 2.68, 2.68, 2.68, 2.68, 2.68, 2.68, 2.68, 2.68, 2.68, 2.68, 2.68, 2.68, 2.68, 2.68, 2.68, 2.68, 2.68, 2.68, 2.68, 2.24, 2.24, 2.24, 2.24, 2.24, 1.79, 1.79, 1.79, 1.79, 1.79, 1.79, 2.24, 2.24, 2.24, 2.68, 2.68, 2.24, 2.24, 1.79, 2.24, 2.24, 2.68, 3.13, 3.58, 4.02, 4.92, 5.81, 5.81, 4.92, 3.58, 3.13, 3.13, 3.58, 2.24, 0.45, 0.89, 1.79, 3.13, 4.02, 4.47, 4.02, 4.02, 3.58, 3.58, 3.58, 3.13, 3.13, 4.02, 4.92, 5.81, 6.71, 7.6, 8.05, 8.05, 8.05, 8.05, 8.05, 2.24, 2.24, 2.68, 2.68, 2.68, 2.68, 2.68, 2.68, 2.68, 2.68, 2.68, 2.68, 2.68, 2.68, 2.68, 2.68, 2.68, 2.68, 2.68, 2.68, 2.68, 2.68, 2.68, 2.68, 2.68, 2.68, 2.68, 2.68, 2.68, 2.68, 2.68, 2.68, 2.68, 2.68, 2.68, 2.68, 2.68, 2.68, 2.68, 2.68, 2.24, 2.24, 2.24, 2.24, 2.24, 2.24, 1.79, 1.79, 1.79, 1.34, 1.34, 1.34, 1.79, 1.79, 1.79, 1.79, 1.34, 1.79, 1.79, 1.34, 1.34, 1.79, 2.24, 2.68, 3.13, 4.02, 4.47, 4.47, 4.92, 4.47, 4.02, 3.13, 2.68, 3.13, 3.58, 1.79, 0.45, 0.45, 1.79, 3.13, 4.47, 4.92, 4.92, 4.47, 4.47, 4.02, 4.02, 4.02, 4.47, 5.36, 6.26, 7.15, 7.6, 8.05, 8.05, 8.05, 8.05, 8.05, 2.24, 2.24, 2.68, 2.68, 2.68, 2.68, 2.68, 2.68, 2.68, 2.68, 2.68, 2.68, 2.68, 2.68, 2.68, 2.68, 2.68, 2.68, 2.68, 2.68, 2.68, 2.68, 2.68, 2.68, 2.24, 2.24, 2.24, 2.24, 2.68, 2.68, 2.68, 2.68, 2.68, 2.68, 2.68, 2.68, 2.68, 2.68, 2.68, 2.24, 2.24, 2.24, 2.24, 2.24, 2.24, 2.24, 1.79, 1.79, 1.79, 1.34, 1.34, 1.34, 1.34, 1.34, 1.34, 1.34, 1.34, 1.34, 1.34, 1.34, 1.34, 1.34, 1.79, 2.24, 3.13, 3.58, 4.02, 4.02, 4.02, 4.47, 4.02, 3.58, 2.68, 2.68, 3.58, 3.58, 1.79, 0.89, 1.34, 2.24, 3.58, 4.47, 4.92, 4.92, 4.47, 4.02, 4.02, 4.47, 5.36, 6.26, 6.71, 7.15, 7.6, 8.05, 8.05, 8.49, 8.49, 8.49, 2.24, 2.24, 2.24, 2.68, 2.68, 2.68, 2.68, 2.68, 2.68, 2.68, 2.68, 2.68, 2.68, 2.68, 2.68, 2.68, 2.68, 2.68, 2.68, 2.68, 2.68, 2.68, 2.68, 2.24, 2.24, 2.24, 2.24, 2.24, 2.68, 2.68, 2.68, 2.68, 2.68, 2.68, 2.68, 2.68, 2.68, 2.68, 2.24, 2.24, 2.24, 2.24, 2.24, 2.24, 2.24, 1.79, 1.79, 1.79, 1.79, 1.34, 1.34, 1.34, 0.89, 0.89, 0.89, 0.89, 0.89, 1.34, 1.34, 1.34, 0.89, 1.34, 1.79, 2.24, 2.68, 3.13, 3.58, 3.58, 3.58, 3.58, 4.02, 4.02, 3.58, 3.13, 3.58, 4.02, 3.58, 2.24, 1.79, 2.24, 3.13, 3.58, 4.02, 4.02, 4.02, 4.02, 4.47, 5.36, 6.26, 6.71, 7.15, 7.6, 7.6, 8.05, 8.05, 8.05, 8.49, 8.49, 2.24, 2.24, 2.24, 2.24, 2.68, 2.68, 2.68, 2.68, 2.68, 2.24, 2.24, 2.24, 2.68, 2.68, 2.68, 2.68, 2.68, 2.68, 2.68, 2.68, 2.68, 2.68, 2.68, 2.68, 2.68, 2.68, 2.68, 2.68, 2.68, 2.68, 2.68, 2.68, 2.68, 2.68, 2.68, 2.24, 2.24, 2.24, 2.24, 2.24, 2.24, 2.24, 2.24, 1.79, 1.79, 1.79, 1.79, 1.79, 1.79, 1.34, 1.34, 1.34, 0.89, 0.89, 0.45, 0.45, 0.45, 0.89, 1.34, 0.89, 0.89, 1.34, 1.79, 2.24, 2.24, 2.68, 2.68, 2.68, 2.68, 3.13, 3.58, 4.02, 4.47, 4.02, 3.58, 4.02, 4.02, 3.58, 3.13, 3.13, 3.13, 3.13, 3.13, 3.13, 3.58, 4.02, 4.92, 5.36, 6.26, 6.71, 7.15, 7.6, 7.6, 8.05, 8.05, 8.05, 8.49, 8.49, 2.24, 2.24, 2.24, 2.24, 2.24, 2.24, 2.24, 2.24, 2.24, 2.24, 2.24, 2.24, 2.24, 2.24, 2.24, 2.68, 2.68, 2.68, 2.68, 2.68, 2.68, 2.68, 2.68, 2.68, 2.68, 2.68, 2.68, 2.68, 2.68, 2.68, 2.68, 2.68, 2.68, 2.24, 2.24, 2.24, 2.24, 2.24, 2.24, 2.24, 2.24, 2.24, 1.79, 1.79, 1.79, 1.79, 1.79, 1.79, 1.79, 1.79, 1.34, 1.34, 0.89, 0.89, 0.45, 0.45, 0.45, 0.45, 0.89, 0.89, 0.89, 1.34, 1.79, 1.79, 2.24, 2.24, 2.24, 2.24, 2.24, 3.13, 3.13, 4.47, 4.92, 4.92, 4.02, 3.58, 3.58, 3.58, 4.02, 4.47, 4.02, 3.13, 3.13, 3.13, 3.58, 4.02, 4.92, 5.81, 6.26, 6.71, 7.6, 7.6, 7.6, 8.05, 8.05, 8.05, 8.05, 8.05, 2.24, 2.24, 2.24, 2.24, 2.24, 2.24, 2.24, 2.24, 2.24, 2.24, 2.24, 2.24, 2.24, 2.24, 2.24, 2.24, 2.24, 2.68, 2.68, 2.68, 2.68, 2.68, 2.68, 2.68, 2.68, 2.68, 2.68, 2.68, 2.68, 2.68, 2.68, 2.24, 2.24, 2.24, 2.24, 2.24, 2.24, 2.24, 2.24, 2.24, 1.79, 1.79, 1.79, 1.79, 1.79, 1.79, 1.79, 1.79, 1.79, 1.79, 1.34, 1.34, 1.34, 0.89, 0.89, 0.45, 0.45, 0.45, 0.89, 0.89, 0.89, 1.34, 1.34, 1.79, 1.79, 1.79, 1.79, 2.24, 2.68, 3.13, 3.58, 4.47, 5.36, 5.81, 5.36, 3.58, 2.68, 3.13, 4.02, 4.47, 4.47, 4.02, 3.58, 3.58, 4.02, 4.47, 5.36, 5.81, 6.26, 7.15, 7.15, 7.6, 7.6, 7.6, 8.05, 8.05, 8.49, 8.05, 1.79, 1.79, 1.79, 2.24, 2.24, 2.24, 2.24, 2.24, 2.24, 2.24, 2.24, 2.24, 2.24, 2.24, 2.24, 2.24, 2.24, 2.24, 2.68, 2.68, 2.68, 2.68, 2.68, 2.68, 2.68, 2.68, 2.68, 2.68, 2.68, 2.68, 2.24, 2.24, 2.24, 2.24, 2.24, 2.24, 1.79, 1.79, 1.79, 1.79, 1.79, 1.79, 1.79, 1.79, 1.79, 1.34, 1.34, 1.79, 1.79, 1.79, 1.34, 1.34, 1.34, 1.34, 0.89, 0.89, 0.89, 0.45, 0.89, 0.89, 1.34, 1.34, 1.34, 1.79, 1.79, 1.79, 1.79, 2.24, 2.68, 3.58, 3.58, 4.47, 5.36, 6.26, 6.71, 5.36, 3.13, 1.79, 2.68, 3.13, 4.02, 4.47, 4.47, 4.47, 4.47, 4.92, 5.36, 5.81, 6.26, 6.71, 7.15, 7.15, 7.6, 7.6, 8.05, 8.49, 8.49, 8.49, 1.79, 1.79, 1.79, 1.79, 1.79, 1.79, 1.79, 1.79, 1.79, 1.79, 1.79, 2.24, 2.24, 2.24, 2.24, 2.24, 2.24, 2.24, 2.68, 2.68, 2.68, 2.68, 2.68, 2.68, 2.68, 2.68, 2.68, 2.68, 2.68, 2.24, 2.24, 2.24, 2.24, 2.24, 1.79, 1.79, 1.79, 1.79, 1.79, 1.79, 1.79, 1.79, 1.79, 1.79, 1.79, 1.34, 1.34, 1.34, 1.34, 1.79, 1.34, 1.34, 1.34, 1.34, 1.34, 1.34, 1.34, 1.34, 1.34, 1.34, 1.34, 1.34, 1.34, 1.79, 1.79, 2.24, 2.24, 2.24, 3.13, 3.58, 4.02, 4.47, 4.92, 5.81, 7.15, 7.6, 5.36, 2.68, 1.79, 1.79, 2.68, 4.02, 4.47, 4.92, 5.36, 5.36, 5.81, 6.26, 6.26, 6.71, 7.15, 7.15, 7.6, 8.05, 8.05, 8.49, 8.49, 8.49, 1.79, 1.79, 1.79, 1.79, 1.79, 1.79, 1.79, 1.79, 1.79, 1.79, 1.79, 1.79, 1.79, 2.24, 2.24, 2.24, 2.24, 2.24, 2.24, 2.68, 2.68, 2.68, 2.68, 2.68, 2.68, 2.68, 2.68, 2.68, 2.24, 2.24, 2.24, 2.24, 2.24, 1.79, 1.79, 1.79, 1.79, 1.79, 1.79, 1.79, 1.79, 1.79, 1.79, 1.79, 1.79, 1.34, 1.34, 1.34, 1.34, 1.34, 1.34, 1.34, 1.34, 1.34, 1.34, 1.34, 1.79, 1.79, 1.79, 1.79, 1.79, 1.79, 1.79, 1.79, 1.79, 2.24, 2.68, 2.68, 3.13, 3.58, 4.02, 4.02, 4.47, 5.36, 6.26, 7.6, 8.05, 5.81, 2.68, 1.79, 1.79, 2.68, 3.58, 4.47, 5.36, 5.81, 6.26, 6.26, 6.71, 7.15, 7.6, 8.05, 8.49, 8.49, 8.05, 8.05, 8.05, 8.05, 1.34, 1.34, 1.79, 1.79, 1.79, 1.79, 1.79, 1.34, 1.79, 1.79, 1.79, 1.79, 1.79, 1.79, 1.79, 2.24, 2.24, 2.24, 2.24, 2.68, 2.68, 2.68, 2.68, 2.68, 2.68, 2.68, 2.68, 2.24, 2.24, 2.24, 2.24, 2.24, 1.79, 1.79, 1.79, 1.79, 1.79, 1.34, 1.34, 1.79, 1.79, 1.79, 1.79, 1.79, 1.79, 1.79, 1.34, 1.34, 1.34, 1.34, 1.34, 1.34, 1.79, 1.79, 1.79, 1.79, 1.79, 2.24, 2.24, 2.24, 2.24, 2.24, 2.24, 2.24, 2.24, 2.68, 3.13, 2.68, 3.13, 3.58, 4.02, 4.02, 4.47, 4.92, 5.81, 6.71, 8.05, 8.05, 6.26, 4.02, 2.68, 2.24, 3.13, 4.02, 4.92, 5.81, 6.26, 6.71, 7.15, 7.6, 8.05, 8.49, 8.49, 7.6, 7.6, 7.6, 7.6, 7.6, 1.34, 1.34, 1.34, 1.34, 1.34, 1.34, 1.34, 1.34, 1.34, 1.34, 1.79, 1.79, 1.79, 1.79, 1.79, 1.79, 1.79, 2.24, 2.24, 2.68, 2.68, 2.68, 2.24, 2.24, 2.24, 2.24, 2.24, 2.24, 2.24, 2.24, 2.24, 1.79, 1.79, 1.79, 1.79, 1.34, 1.34, 1.34, 1.34, 1.34, 1.34, 1.79, 1.79, 1.79, 1.79, 1.79, 1.34, 1.34, 1.34, 1.34, 1.34, 1.79, 1.79, 1.79, 1.79, 2.24, 2.24, 2.24, 2.68, 2.68, 2.68, 2.68, 3.13, 3.13, 3.13, 3.13, 3.58, 3.58, 3.58, 4.02, 4.02, 4.02, 4.47, 4.92, 5.36, 6.26, 7.15, 8.49, 8.05, 7.15, 4.92, 3.58, 3.13, 3.58, 4.47, 5.36, 6.26, 7.15, 7.6, 8.05, 8.49, 8.05, 7.15, 7.15, 7.15, 7.6, 7.6, 7.6, 1.34, 1.34, 1.34, 1.34, 1.34, 0.89, 1.34, 1.34, 1.34, 1.34, 1.34, 1.34, 1.79, 1.79, 1.79, 1.79, 1.79, 2.24, 2.24, 2.24, 2.24, 2.24, 2.24, 2.24, 2.24, 2.24, 2.24, 2.24, 2.24, 2.24, 1.79, 1.79, 1.79, 1.79, 1.34, 1.34, 1.34, 1.34, 1.34, 1.34, 1.34, 1.34, 1.34, 1.34, 1.34, 1.34, 1.34, 1.34, 1.34, 1.34, 1.34, 1.79, 1.79, 1.79, 2.24, 2.24, 2.24, 2.68, 2.68, 3.13, 3.13, 3.13, 3.58, 3.58, 3.58, 3.58, 4.02, 4.02, 4.02, 4.02, 4.02, 4.47, 4.92, 5.36, 5.81, 6.26, 6.71, 7.6, 8.49, 8.49, 7.15, 5.36, 4.02, 4.02, 4.02, 4.92, 5.81, 7.15, 7.6, 8.05, 7.6, 6.71, 6.71, 6.71, 7.15, 7.6, 7.6, 7.6, 0.89, 0.89, 0.89, 0.89, 0.89, 0.89, 0.89, 0.89, 1.34, 1.34, 1.34, 1.34, 1.79, 1.79, 1.79, 1.79, 1.79, 2.24, 2.24, 2.24, 2.24, 2.24, 2.24, 2.24, 1.79, 1.79, 1.79, 1.79, 1.79, 1.79, 1.79, 1.79, 1.79, 1.79, 1.34, 1.34, 1.34, 1.34, 1.34, 1.34, 1.34, 1.34, 1.34, 1.34, 1.34, 1.34, 1.34, 1.34, 1.34, 1.79, 1.79, 1.79, 1.79, 2.24, 2.24, 2.68, 2.68, 2.68, 3.13, 3.13, 3.58, 3.58, 3.58, 4.02, 4.02, 4.02, 4.02, 4.02, 4.47, 4.47, 4.47, 4.92, 4.92, 5.36, 5.81, 6.26, 6.71, 7.6, 8.05, 8.49, 8.05, 7.15, 5.36, 4.47, 4.02, 4.47, 5.81, 6.71, 7.15, 7.15, 6.71, 6.26, 6.26, 6.71, 7.15, 7.6, 7.6, 7.6, 0.89, 0.89, 0.89, 0.89, 0.89, 0.89, 0.89, 0.89, 0.89, 1.34, 1.34, 1.34, 1.34, 1.79, 1.79, 1.79, 1.79, 1.79, 2.24, 2.24, 2.24, 2.24, 2.24, 1.79, 1.79, 1.79, 1.79, 1.79, 1.79, 1.79, 1.79, 1.79, 1.79, 1.79, 1.34, 1.34, 1.34, 1.34, 1.34, 1.34, 1.34, 1.34, 1.34, 1.34, 1.34, 1.34, 1.34, 1.79, 1.79, 1.79, 1.79, 1.79, 2.24, 2.24, 2.68, 2.68, 3.13, 3.13, 3.58, 3.58, 3.58, 4.02, 4.02, 4.02, 4.02, 4.02, 4.02, 4.47, 4.47, 4.47, 4.92, 4.92, 5.36, 5.36, 5.81, 6.26, 6.71, 7.6, 8.05, 8.49, 8.49, 8.05, 6.71, 4.92, 4.02, 4.47, 5.36, 5.81, 6.26, 6.26, 6.26, 6.26, 6.26, 6.71, 6.71, 7.15, 7.15, 7.15, 0.89, 0.89, 0.45, 0.45, 0.45, 0.89, 0.89, 0.89, 0.89, 0.89, 1.34, 1.34, 1.34, 1.34, 1.79, 1.79, 1.79, 1.79, 1.79, 1.79, 1.79, 1.79, 1.79, 1.79, 1.79, 1.34, 1.34, 1.34, 1.79, 1.79, 1.79, 1.79, 1.79, 1.79, 1.34, 1.34, 1.34, 1.34, 1.34, 1.34, 1.34, 1.34, 1.34, 1.34, 1.34, 1.34, 1.79, 1.79, 1.79, 1.79, 2.24, 2.24, 2.24, 2.68, 3.13, 3.13, 3.58, 3.58, 3.58, 4.02, 4.02, 4.02, 4.47, 4.47, 4.47, 4.47, 4.47, 4.47, 4.47, 4.47, 4.47, 4.92, 5.36, 5.36, 5.81, 6.26, 6.71, 7.6, 8.05, 8.49, 8.49, 8.49, 7.6, 5.81, 4.47, 4.47, 5.81, 5.81, 5.81, 5.81, 5.81, 5.81, 5.81, 6.26, 6.71, 6.71, 6.71, 6.71, 0.45, 0.45, 0.45, 0.45, 0.45, 0.45, 0.89, 0.89, 0.89, 0.89, 0.89, 1.34, 1.34, 1.34, 1.34, 1.79, 1.79, 1.79, 1.79, 1.79, 1.79, 1.79, 1.79, 1.79, 1.34, 1.34, 1.34, 1.34, 1.34, 1.79, 1.79, 1.79, 1.79, 1.79, 1.34, 1.34, 1.34, 1.34, 1.34, 1.34, 1.34, 1.34, 1.34, 1.34, 1.34, 1.79, 1.79, 1.79, 1.79, 2.24, 2.24, 2.68, 2.68, 3.13, 3.13, 3.58, 3.58, 4.02, 4.02, 4.02, 4.47, 4.47, 4.47, 4.47, 4.92, 4.92, 4.92, 4.47, 4.47, 4.47, 4.47, 4.92, 4.92, 5.36, 5.81, 6.26, 6.71, 7.15, 7.6, 8.05, 8.49, 8.49, 8.05, 7.15, 5.36, 4.92, 5.36, 5.81, 5.81, 5.81, 5.81, 5.36, 5.81, 6.26, 6.71, 6.71, 6.71, 6.71, 0.45, 0.45, 0.45, 0.45, 0.45, 0.45, 0.45, 0.89, 0.89, 0.89, 0.89, 1.34, 1.34, 1.34, 1.34, 1.34, 1.34, 1.34, 1.34, 1.34, 1.34, 1.79, 1.34, 1.34, 1.34, 1.34, 1.34, 1.34, 1.34, 1.34, 1.79, 1.79, 1.79, 1.34, 1.34, 1.34, 1.34, 1.34, 1.34, 1.34, 1.34, 1.34, 1.34, 1.34, 1.79, 1.79, 1.79, 2.24, 2.24, 2.24, 2.68, 2.68, 3.13, 3.58, 3.58, 4.02, 4.02, 4.02, 4.47, 4.47, 4.47, 4.47, 4.47, 4.92, 4.92, 4.92, 4.92, 4.92, 4.92, 4.92, 4.92, 4.47, 4.92, 4.92, 5.81, 6.26, 6.71, 7.15, 7.15, 7.6, 8.05, 8.49, 8.05, 7.6, 5.36, 4.92, 5.36, 5.36, 5.36, 5.36, 5.36, 5.36, 5.36, 5.81, 6.26, 6.71, 6.71, 6.71, 0.0, 0.0, 0.45, 0.45, 0.45, 0.45, 0.45, 0.89, 0.89, 0.89, 0.89, 0.89, 1.34, 1.34, 1.34, 1.34, 1.34, 1.34, 1.34, 1.34, 1.34, 1.34, 1.34, 1.34, 1.34, 1.34, 1.34, 1.34, 1.34, 1.34, 1.34, 1.34, 1.34, 1.34, 1.34, 1.34, 1.34, 1.34, 1.34, 1.34, 1.34, 1.34, 1.79, 1.79, 1.79, 1.79, 2.24, 2.24, 2.68, 2.68, 3.13, 3.13, 3.13, 3.58, 4.02, 4.02, 4.47, 4.47, 4.47, 4.47, 4.47, 4.47, 4.92, 4.92, 4.92, 4.92, 4.92, 4.92, 4.92, 5.36, 4.92, 4.92, 4.92, 4.92, 5.36, 5.81, 6.26, 6.71, 7.15, 7.15, 7.6, 8.05, 7.6, 6.26, 5.36, 4.92, 5.36, 5.36, 5.36, 5.36, 5.36, 5.36, 5.36, 5.81, 6.26, 6.71, 6.71, 6.71, 0.0, 0.0, 0.45, 0.45, 0.45, 0.45, 0.45, 0.45, 0.89, 0.89, 0.89, 0.89, 0.89, 1.34, 1.34, 1.34, 1.34, 1.34, 1.34, 1.34, 1.34, 1.34, 1.34, 1.34, 1.34, 1.34, 1.34, 1.34, 1.34, 1.34, 1.34, 1.34, 1.34, 1.34, 1.34, 1.34, 1.79, 1.79, 1.79, 1.79, 1.79, 1.79, 1.79, 1.79, 2.24, 2.24, 2.24, 2.68, 2.68, 3.13, 3.13, 3.58, 4.02, 4.02, 4.02, 4.47, 4.47, 4.47, 4.47, 4.47, 4.92, 4.92, 4.92, 4.92, 4.92, 4.92, 4.92, 5.36, 5.36, 5.36, 5.36, 5.36, 5.36, 5.36, 5.36, 5.36, 6.26, 6.71, 6.71, 7.15, 7.15, 7.6, 7.6, 6.26, 4.92, 4.47, 4.92, 5.36, 5.36, 5.36, 5.36, 5.36, 5.81, 5.81, 6.26, 6.71, 6.71, 6.71, 0.0, 0.0, 0.45, 0.45, 0.45, 0.45, 0.45, 0.45, 0.89, 0.89, 0.89, 0.89, 0.89, 0.89, 0.89, 1.34, 0.89, 0.89, 0.89, 0.89, 0.89, 0.89, 0.89, 1.34, 1.34, 1.34, 1.34, 1.34, 1.34, 1.34, 1.34, 1.34, 1.34, 1.34, 1.79, 1.79, 1.79, 1.79, 1.79, 1.79, 1.79, 1.79, 2.24, 2.24, 2.24, 2.68, 2.68, 2.68, 3.13, 3.13, 3.58, 3.58, 4.02, 4.02, 4.47, 4.47, 4.47, 4.47, 4.47, 4.92, 4.92, 4.92, 4.92, 4.92, 4.92, 4.92, 5.36, 5.36, 5.36, 5.36, 5.36, 5.81, 5.81, 5.81, 5.81, 5.81, 5.81, 6.26, 6.71, 7.15, 7.15, 7.6, 8.05, 6.71, 4.47, 4.02, 4.02, 4.92, 5.36, 5.36, 5.36, 5.81, 5.81, 6.26, 6.26, 6.71, 6.71, 6.71, 0.0, 0.0, 0.45, 0.45, 0.45, 0.45, 0.45, 0.45, 0.45, 0.89, 0.89, 0.89, 0.89, 0.89, 0.89, 0.89, 0.89, 0.89, 0.89, 0.89, 0.89, 0.89, 0.89, 1.34, 1.34, 1.34, 1.34, 1.34, 1.34, 1.34, 1.34, 1.34, 1.34, 1.79, 1.79, 1.79, 1.79, 1.79, 1.79, 1.79, 2.24, 2.24, 2.24, 2.24, 2.68, 2.68, 3.13, 3.13, 3.13, 3.58, 3.58, 4.02, 4.47, 4.47, 4.47, 4.47, 4.47, 4.92, 4.92, 4.92, 4.92, 4.92, 4.92, 4.92, 4.92, 5.36, 5.36, 5.36, 5.36, 5.36, 5.36, 5.81, 5.81, 5.81, 5.81, 5.81, 5.81, 6.26, 6.71, 7.15, 7.6, 8.05, 8.49, 8.05, 5.36, 3.58, 3.58, 4.02, 4.92, 5.36, 5.36, 5.81, 6.26, 6.26, 6.71, 7.15, 7.15, 7.15, 0.0, 0.0, 0.0, 0.45, 0.45, 0.45, 0.45, 0.45, 0.45, 0.45, 0.45, 0.89, 0.89, 0.89, 0.89, 0.89, 0.89, 0.89, 0.89, 0.89, 0.89, 0.89, 0.89, 0.89, 0.89, 1.34, 1.34, 1.34, 1.34, 1.34, 1.34, 1.34, 1.79, 1.79, 1.79, 1.79, 1.79, 1.79, 2.24, 2.24, 2.24, 2.24, 2.68, 2.68, 2.68, 3.13, 3.13, 3.58, 3.58, 4.02, 4.02, 4.47, 4.47, 4.47, 4.47, 4.92, 4.92, 4.92, 4.92, 4.92, 4.92, 4.92, 4.92, 4.92, 5.36, 5.36, 5.36, 5.36, 5.36, 5.36, 5.36, 5.36, 5.81, 5.81, 5.81, 5.81, 5.81, 6.26, 6.26, 6.71, 7.6, 7.6, 8.05, 8.49, 7.15, 4.92, 4.02, 4.02, 4.02, 4.47, 5.36, 5.81, 6.26, 6.71, 6.71, 7.15, 7.15, 7.15, 0.0, 0.0, 0.0, 0.45, 0.45, 0.45, 0.45, 0.45, 0.45, 0.45, 0.45, 0.45, 0.45, 0.45, 0.45, 0.45, 0.45, 0.45, 0.45, 0.45, 0.89, 0.89, 0.89, 0.89, 0.89, 0.89, 1.34, 1.34, 1.34, 1.34, 1.34, 1.79, 1.79, 1.79, 1.79, 1.79, 1.79, 2.24, 2.24, 2.24, 2.68, 2.68, 2.68, 3.13, 3.13, 3.13, 3.58, 3.58, 4.02, 4.02, 4.02, 4.47, 4.47, 4.47, 4.92, 4.92, 4.92, 4.92, 4.92, 4.92, 4.92, 4.92, 4.92, 5.36, 5.36, 5.36, 5.36, 5.36, 5.36, 5.36, 5.36, 5.36, 5.81, 5.81, 5.81, 5.81, 5.81, 5.81, 6.26, 6.71, 7.15, 7.6, 7.6, 8.05, 8.05, 6.71, 5.36, 4.47, 4.02, 4.02, 4.92, 5.36, 6.26, 6.71, 7.15, 7.6, 7.6, 7.6, 0.0, 0.0, 0.0, 0.45, 0.45, 0.45, 0.45, 0.45, 0.45, 0.45, 0.45, 0.45, 0.45, 0.45, 0.45, 0.45, 0.45, 0.45, 0.45, 0.45, 0.89, 0.89, 0.89, 0.89, 0.89, 0.89, 1.34, 1.34, 1.34, 1.34, 1.34, 1.79, 1.79, 1.79, 1.79, 2.24, 2.24, 2.24, 2.24, 2.68, 2.68, 2.68, 3.13, 3.13, 3.13, 3.58, 3.58, 4.02, 4.02, 4.02, 4.47, 4.47, 4.47, 4.92, 4.92, 4.92, 4.92, 4.92, 4.92, 4.92, 5.36, 5.36, 5.36, 5.36, 5.36, 5.36, 5.36, 5.36, 5.36, 5.36, 5.36, 5.36, 5.81, 5.81, 5.81, 5.81, 5.81, 5.81, 6.26, 6.71, 7.15, 7.15, 7.6, 8.05, 8.49, 7.6, 6.26, 5.36, 4.92, 4.47, 4.92, 5.36, 5.81, 6.71, 7.15, 7.6, 7.6, 7.6, 0.0, 0.0, 0.0, 0.45, 0.45, 0.45, 0.45, 0.45, 0.45, 0.45, 0.45, 0.45, 0.45, 0.45, 0.45, 0.45, 0.45, 0.45, 0.45, 0.45, 0.89, 0.89, 0.89, 0.89, 0.89, 0.89, 1.34, 1.34, 1.34, 1.34, 1.79, 1.79, 1.79, 1.79, 2.24, 2.24, 2.24, 2.68, 2.68, 2.68, 3.13, 3.13, 3.13, 3.58, 3.58, 3.58, 4.02, 4.02, 4.02, 4.47, 4.47, 4.47, 4.92, 4.92, 4.92, 4.92, 4.92, 4.92, 4.92, 5.36, 5.36, 5.36, 5.36, 5.36, 5.36, 5.36, 5.36, 5.36, 5.36, 5.36, 5.36, 5.36, 5.81, 5.81, 5.81, 5.81, 5.81, 5.81, 6.26, 6.26, 6.71, 7.15, 7.6, 8.05, 8.49, 8.05, 7.15, 6.26, 5.36, 5.36, 4.92, 5.36, 5.81, 6.26, 6.71, 7.15, 7.15, 7.15, 0.0, 0.0, 0.0, 0.0, 0.0, 0.45, 0.45, 0.45, 0.45, 0.45, 0.45, 0.45, 0.0, 0.0, 0.0, 0.0, 0.45, 0.45, 0.45, 0.45, 0.89, 0.89, 0.89, 0.89, 0.89, 0.89, 1.34, 1.34, 1.34, 1.34, 1.79, 1.79, 1.79, 1.79, 2.24, 2.24, 2.68, 2.68, 2.68, 3.13, 3.13, 3.13, 3.58, 3.58, 3.58, 4.02, 4.02, 4.02, 4.47, 4.47, 4.47, 4.92, 4.92, 4.92, 4.92, 4.92, 4.92, 4.92, 4.92, 4.92, 5.36, 5.36, 5.36, 5.36, 5.36, 5.36, 5.36, 5.36, 5.36, 5.36, 5.36, 5.36, 5.36, 5.81, 5.81, 5.81, 5.81, 5.81, 6.26, 6.26, 6.71, 7.15, 7.6, 8.05, 8.49, 8.49, 7.6, 6.71, 6.26, 5.81, 5.81, 5.81, 5.81, 6.26, 6.71, 7.15, 7.15, 7.15, 0.0, 0.0, 0.0, 0.0, 0.0, 0.45, 0.45, 0.45, 0.45, 0.45, 0.45, 0.45, 0.0, 0.0, 0.0, 0.0, 0.45, 0.45, 0.45, 0.45, 0.89, 0.89, 0.89, 0.89, 0.89, 0.89, 1.34, 1.34, 1.34, 1.34, 1.79, 1.79, 1.79, 1.79, 2.24, 2.24, 2.68, 2.68, 2.68, 3.13, 3.13, 3.13, 3.58, 3.58, 3.58, 4.02, 4.02, 4.02, 4.47, 4.47, 4.47, 4.92, 4.92, 4.92, 4.92, 4.92, 4.92, 4.92, 4.92, 4.92, 5.36, 5.36, 5.36, 5.36, 5.36, 5.36, 5.36, 5.36, 5.36, 5.36, 5.36, 5.36, 5.36, 5.81, 5.81, 5.81, 5.81, 5.81, 6.26, 6.26, 6.71, 6.71, 7.6, 8.05, 8.49, 8.49, 8.05, 7.6, 6.71, 6.26, 6.26, 6.26, 6.26, 6.71, 6.71, 6.71, 6.71, 6.71]}]